| time (UTC) | temp F | wind direction | speed knots | gust knots | rain 1hr in | rain 24hr in | rain mn in | humidity % | barometer mb |
| 20260506161204 | 80 | 0 | 0.0 | 4.3 | 0.00 | 0.01 | 0.00 | 89 | 1002.0 |
| 20260506161104 | 80 | 0 | 0.0 | 4.3 | 0.00 | 0.01 | 0.00 | 89 | 1001.9 |
| 20260506161005 | 80 | 137 | 0.9 | 4.3 | 0.00 | 0.01 | 0.00 | 89 | 1002.0 |
| 20260506160904 | 79 | 137 | 2.6 | 4.3 | 0.00 | 0.01 | 0.00 | 89 | 1002.0 |
| 20260506160804 | 79 | 138 | 3.5 | 5.2 | 0.00 | 0.01 | 0.00 | 89 | 1002.0 |
| 20260506160706 | 79 | 175 | 2.6 | 5.2 | 0.00 | 0.01 | 0.00 | 89 | 1001.9 |
| 20260506160603 | 79 | 178 | 2.6 | 5.2 | 0.00 | 0.01 | 0.00 | 89 | 1001.9 |
| 20260506160504 | 79 | 178 | 2.6 | 6.1 | 0.00 | 0.01 | 0.00 | 89 | 1001.9 |
| 20260506160401 | 79 | 185 | 2.6 | 6.1 | 0.00 | 0.01 | 0.00 | 89 | 1001.9 |
| 20260506160302 | 79 | 176 | 1.7 | 6.1 | 0.00 | 0.01 | 0.00 | 90 | 1001.9 |
| 20260506160204 | 79 | 168 | 2.6 | 7.8 | 0.00 | 0.01 | 0.00 | 89 | 1001.8 |
| 20260506160003 | 79 | 168 | 3.5 | 7.8 | 0.00 | 0.01 | 0.00 | 89 | 1001.8 |
| 20260506155904 | 79 | 169 | 3.5 | 7.8 | 0.00 | 0.01 | 0.00 | 89 | 1001.7 |
| 20260506155803 | 79 | 176 | 4.3 | 7.8 | 0.00 | 0.01 | 0.00 | 89 | 1001.7 |
| 20260506155702 | 79 | 182 | 5.2 | 7.8 | 0.00 | 0.01 | 0.00 | 89 | 1001.6 |
| 20260506155602 | 79 | 168 | 5.2 | 7.8 | 0.00 | 0.01 | 0.00 | 89 | 1001.6 |
| 20260506155504 | 79 | 173 | 4.3 | 7.8 | 0.00 | 0.01 | 0.00 | 89 | 1001.5 |
| 20260506155402 | 79 | 158 | 5.2 | 7.8 | 0.00 | 0.01 | 0.00 | 89 | 1001.5 |
| 20260506155306 | 79 | 159 | 5.2 | 7.8 | 0.00 | 0.01 | 0.00 | 90 | 1001.5 |
| 20260506155204 | 79 | 157 | 4.3 | 6.1 | 0.00 | 0.01 | 0.00 | 90 | 1001.5 |
| 20260506155103 | 79 | 159 | 3.5 | 6.1 | 0.00 | 0.01 | 0.00 | 90 | 1001.5 |
| 20260506155003 | 79 | 197 | 3.5 | 6.1 | 0.00 | 0.01 | 0.00 | 90 | 1001.5 |
| 20260506154903 | 79 | 166 | 3.5 | 6.1 | 0.00 | 0.01 | 0.00 | 90 | 1001.6 |
| 20260506154803 | 79 | 164 | 4.3 | 7.8 | 0.00 | 0.01 | 0.00 | 90 | 1001.6 |
| 20260506154702 | 79 | 166 | 4.3 | 7.8 | 0.00 | 0.01 | 0.00 | 90 | 1001.6 |
| 20260506154603 | 79 | 162 | 4.3 | 7.8 | 0.00 | 0.01 | 0.00 | 90 | 1001.6 |
| 20260506154504 | 79 | 169 | 3.5 | 7.8 | 0.00 | 0.01 | 0.00 | 90 | 1001.6 |
| 20260506154402 | 79 | 151 | 3.5 | 7.8 | 0.00 | 0.01 | 0.00 | 90 | 1001.6 |
| 20260506154302 | 79 | 182 | 3.5 | 7.8 | 0.00 | 0.01 | 0.00 | 90 | 1001.7 |
| 20260506154203 | 79 | 182 | 3.5 | 7.8 | 0.00 | 0.01 | 0.00 | 90 | 1001.7 |
| 20260506154103 | 79 | 155 | 4.3 | 7.8 | 0.00 | 0.01 | 0.00 | 90 | 1001.7 |
| 20260506154004 | 79 | 171 | 4.3 | 7.8 | 0.00 | 0.01 | 0.00 | 90 | 1001.8 |
| 20260506153902 | 79 | 158 | 4.3 | 7.8 | 0.00 | 0.01 | 0.00 | 90 | 1001.7 |
| 20260506153803 | 79 | 161 | 3.5 | 6.1 | 0.00 | 0.01 | 0.00 | 90 | 1001.7 |
| 20260506153703 | 79 | 168 | 3.5 | 6.1 | 0.00 | 0.01 | 0.00 | 90 | 1001.6 |
| 20260506153602 | 79 | 165 | 4.3 | 6.1 | 0.00 | 0.01 | 0.00 | 90 | 1001.7 |
| 20260506153503 | 79 | 173 | 3.5 | 5.2 | 0.00 | 0.01 | 0.00 | 90 | 1001.7 |
| 20260506153404 | 79 | 0 | 4.3 | 5.2 | 0.00 | 0.01 | 0.00 | 90 | 1001.6 |
| 20260506153302 | 79 | 0 | 5.2 | 5.2 | 0.00 | 0.01 | 0.00 | 90 | 1001.6 |
| 20260506153202 | 79 | 355 | 4.3 | 5.2 | 0.00 | 0.01 | 0.00 | 90 | 1001.6 |
| 20260506153103 | 79 | 0 | 4.3 | 5.2 | 0.00 | 0.01 | 0.00 | 90 | 1001.6 |
| 20260506153002 | 79 | 0 | 4.3 | 5.2 | 0.00 | 0.01 | 0.00 | 90 | 1001.5 |
| 20260506152902 | 79 | 0 | 3.5 | 5.2 | 0.00 | 0.01 | 0.00 | 90 | 1001.5 |
| 20260506152803 | 79 | 0 | 3.5 | 5.2 | 0.00 | 0.01 | 0.00 | 91 | 1001.6 |
| 20260506152702 | 79 | 0 | 3.5 | 5.2 | 0.00 | 0.01 | 0.00 | 91 | 1001.7 |
| 20260506152602 | 79 | 0 | 3.5 | 5.2 | 0.00 | 0.01 | 0.00 | 91 | 1001.7 |
| 20260506152502 | 79 | 0 | 3.5 | 5.2 | 0.00 | 0.01 | 0.00 | 91 | 1001.6 |
| 20260506152403 | 79 | 0 | 3.5 | 5.2 | 0.00 | 0.01 | 0.00 | 91 | 1001.7 |
| 20260506152305 | 79 | 0 | 3.5 | 5.2 | 0.00 | 0.01 | 0.00 | 91 | 1001.7 |
| 20260506152200 | 79 | 0 | 3.5 | 5.2 | 0.00 | 0.01 | 0.00 | 91 | 1001.7 |
| 20260506152058 | 79 | 0 | 3.5 | 5.2 | 0.00 | 0.01 | 0.00 | 91 | 1001.6 |
| 20260506151956 | 79 | 0 | 2.6 | 7.8 | 0.00 | 0.01 | 0.00 | 91 | 1001.6 |
| 20260506151853 | 79 | 0 | 2.6 | 8.7 | 0.00 | 0.01 | 0.00 | 91 | 1001.6 |
| 20260506151753 | 79 | 0 | 3.5 | 8.7 | 0.00 | 0.01 | 0.00 | 91 | 1001.6 |
| 20260506151653 | 79 | 149 | 2.6 | 8.7 | 0.00 | 0.01 | 0.00 | 92 | 1001.5 |
| 20260506151551 | 78 | 141 | 2.6 | 8.7 | 0.00 | 0.01 | 0.00 | 92 | 1001.5 |
| 20260506151449 | 78 | 147 | 3.5 | 8.7 | 0.00 | 0.01 | 0.00 | 92 | 1001.6 |
| 20260506151347 | 78 | 140 | 3.5 | 8.7 | 0.00 | 0.01 | 0.00 | 92 | 1001.5 |
| 20260506151247 | 78 | 165 | 4.3 | 8.7 | 0.00 | 0.01 | 0.00 | 92 | 1001.6 |
| 20260506151145 | 78 | 166 | 5.2 | 8.7 | 0.00 | 0.01 | 0.00 | 92 | 1001.6 |
| 20260506151043 | 78 | 166 | 6.1 | 8.7 | 0.00 | 0.01 | 0.00 | 92 | 1001.6 |
| 20260506150941 | 78 | 168 | 5.2 | 8.7 | 0.00 | 0.01 | 0.00 | 92 | 1001.5 |
| 20260506150837 | 78 | 138 | 4.3 | 8.7 | 0.00 | 0.01 | 0.00 | 92 | 1001.5 |
| 20260506150735 | 78 | 172 | 4.3 | 8.7 | 0.00 | 0.01 | 0.00 | 92 | 1001.5 |
| 20260506150633 | 78 | 183 | 4.3 | 8.7 | 0.00 | 0.01 | 0.00 | 92 | 1001.6 |
| 20260506150532 | 78 | 0 | 5.2 | 8.7 | 0.00 | 0.01 | 0.00 | 93 | 1001.6 |
| 20260506150431 | 78 | 0 | 5.2 | 8.7 | 0.00 | 0.01 | 0.00 | 93 | 1001.5 |
| 20260506150332 | 78 | 0 | 5.2 | 8.7 | 0.00 | 0.01 | 0.00 | 93 | 1001.5 |
| 20260506150231 | 78 | 0 | 5.2 | 8.7 | 0.00 | 0.01 | 0.00 | 93 | 1001.4 |
| 20260506150131 | 78 | 0 | 6.1 | 8.7 | 0.00 | 0.01 | 0.00 | 93 | 1001.4 |
| 20260506150031 | 78 | 0 | 7.0 | 8.7 | 0.00 | 0.01 | 0.00 | 93 | 1001.4 |
| 20260506145931 | 78 | 0 | 6.1 | 8.7 | 0.00 | 0.01 | 0.00 | 93 | 1001.4 |
| 20260506145831 | 78 | 0 | 5.2 | 8.7 | 0.00 | 0.01 | 0.00 | 93 | 1001.2 |
| 20260506145731 | 78 | 0 | 6.1 | 8.7 | 0.00 | 0.01 | 0.00 | 93 | 1001.2 |
| 20260506145632 | 78 | 0 | 6.1 | 8.7 | 0.00 | 0.01 | 0.00 | 93 | 1001.3 |
| 20260506145530 | 78 | 0 | 6.1 | 7.8 | 0.00 | 0.01 | 0.00 | 93 | 1001.3 |
| 20260506145432 | 78 | 0 | 5.2 | 7.8 | 0.00 | 0.01 | 0.00 | 93 | 1001.2 |
| 20260506145333 | 78 | 0 | 4.3 | 7.8 | 0.00 | 0.01 | 0.00 | 94 | 1001.2 |
| 20260506145231 | 78 | 0 | 5.2 | 7.8 | 0.00 | 0.01 | 0.00 | 94 | 1001.2 |
| 20260506145132 | 78 | 0 | 5.2 | 7.8 | 0.00 | 0.01 | 0.00 | 94 | 1001.3 |
| 20260506145029 | 78 | 173 | 4.3 | 7.8 | 0.00 | 0.01 | 0.00 | 94 | 1001.3 |
| 20260506144931 | 78 | 155 | 4.3 | 7.8 | 0.00 | 0.01 | 0.00 | 94 | 1001.3 |
| 20260506144830 | 78 | 171 | 5.2 | 7.8 | 0.00 | 0.01 | 0.00 | 94 | 1001.4 |
| 20260506144728 | 78 | 165 | 5.2 | 7.8 | 0.00 | 0.01 | 0.00 | 94 | 1001.4 |
| 20260506144627 | 78 | 171 | 4.3 | 7.8 | 0.00 | 0.01 | 0.00 | 94 | 1001.4 |
| 20260506144526 | 77 | 140 | 4.3 | 7.8 | 0.00 | 0.01 | 0.00 | 94 | 1001.4 |
| 20260506144425 | 77 | 138 | 5.2 | 7.8 | 0.00 | 0.01 | 0.00 | 94 | 1001.3 |
| 20260506144323 | 77 | 161 | 6.1 | 7.8 | 0.00 | 0.01 | 0.00 | 94 | 1001.3 |
| 20260506144222 | 77 | 159 | 4.3 | 7.8 | 0.00 | 0.01 | 0.00 | 94 | 1001.3 |
| 20260506144120 | 77 | 148 | 2.6 | 5.2 | 0.00 | 0.01 | 0.00 | 94 | 1001.2 |
| 20260506144018 | 77 | 152 | 1.7 | 5.2 | 0.00 | 0.01 | 0.00 | 94 | 1001.1 |
| 20260506143917 | 77 | 131 | 0.9 | 3.5 | 0.00 | 0.01 | 0.00 | 94 | 1001.1 |
| 20260506143815 | 77 | 144 | 1.7 | 3.5 | 0.00 | 0.01 | 0.00 | 95 | 1001.1 |
| 20260506143714 | 77 | 134 | 0.9 | 3.5 | 0.00 | 0.01 | 0.00 | 95 | 1001.0 |
| 20260506143612 | 77 | 121 | 0.0 | 3.5 | 0.00 | 0.01 | 0.00 | 94 | 1001.0 |
| 20260506143512 | 77 | 145 | 0.9 | 3.5 | 0.00 | 0.01 | 0.00 | 94 | 1001.0 |
| 20260506143410 | 77 | 149 | 0.9 | 3.5 | 0.00 | 0.01 | 0.00 | 94 | 1000.9 |
| 20260506143308 | 77 | 140 | 0.9 | 4.3 | 0.00 | 0.01 | 0.00 | 94 | 1000.9 |
| 20260506143207 | 77 | 135 | 0.9 | 4.3 | 0.00 | 0.01 | 0.00 | 95 | 1000.9 |
| 20260506143102 | 77 | 154 | 0.0 | 4.3 | 0.00 | 0.01 | 0.00 | 95 | 1000.9 |
| 20260506143003 | 77 | 135 | 0.0 | 4.3 | 0.00 | 0.01 | 0.00 | 95 | 1000.8 |
| 20260506142903 | 77 | 151 | 0.0 | 4.3 | 0.00 | 0.01 | 0.00 | 95 | 1000.9 |
| 20260506142801 | 77 | 144 | 0.0 | 4.3 | 0.00 | 0.01 | 0.00 | 95 | 1000.9 |
| 20260506142659 | 77 | 124 | 0.0 | 4.3 | 0.00 | 0.01 | 0.00 | 95 | 1000.8 |
| 20260506142557 | 77 | 148 | 1.7 | 4.3 | 0.00 | 0.01 | 0.00 | 95 | 1000.8 |
| 20260506142456 | 77 | 147 | 1.7 | 4.3 | 0.00 | 0.01 | 0.00 | 95 | 1000.8 |
| 20260506142355 | 77 | 131 | 0.9 | 4.3 | 0.00 | 0.01 | 0.00 | 95 | 1000.8 |
| 20260506142253 | 77 | 135 | 0.0 | 2.6 | 0.00 | 0.01 | 0.00 | 95 | 1000.8 |
| 20260506142152 | 77 | 134 | 0.0 | 3.5 | 0.00 | 0.01 | 0.00 | 95 | 1000.8 |
| 20260506142050 | 77 | 131 | 0.0 | 3.5 | 0.00 | 0.01 | 0.00 | 95 | 1000.8 |
| 20260506141949 | 77 | 131 | 0.0 | 3.5 | 0.00 | 0.01 | 0.00 | 95 | 1000.8 |
| 20260506141847 | 77 | 147 | 0.0 | 3.5 | 0.00 | 0.01 | 0.00 | 95 | 1000.8 |
| 20260506141744 | 77 | 148 | 0.0 | 4.3 | 0.00 | 0.01 | 0.00 | 95 | 1000.7 |
| 20260506141644 | 77 | 147 | 0.0 | 4.3 | 0.00 | 0.01 | 0.00 | 95 | 1000.8 |
| 20260506141542 | 77 | 145 | 0.0 | 4.3 | 0.00 | 0.01 | 0.00 | 95 | 1000.8 |
| 20260506141441 | 77 | 145 | 0.9 | 4.3 | 0.00 | 0.01 | 0.00 | 95 | 1000.8 |
| 20260506141339 | 77 | 144 | 1.7 | 4.3 | 0.00 | 0.01 | 0.00 | 95 | 1000.9 |
| 20260506141238 | 77 | 147 | 1.7 | 4.3 | 0.00 | 0.01 | 0.00 | 95 | 1000.9 |
| 20260506141137 | 77 | 145 | 1.7 | 4.3 | 0.00 | 0.01 | 0.00 | 95 | 1000.9 |
| 20260506141035 | 77 | 145 | 2.6 | 4.3 | 0.00 | 0.01 | 0.00 | 95 | 1000.9 |
| 20260506140934 | 77 | 158 | 2.6 | 5.2 | 0.00 | 0.01 | 0.00 | 95 | 1000.9 |
| 20260506140833 | 77 | 155 | 2.6 | 6.1 | 0.00 | 0.01 | 0.00 | 95 | 1000.9 |
| 20260506140730 | 77 | 159 | 1.7 | 7.8 | 0.00 | 0.01 | 0.00 | 95 | 1000.8 |
| 20260506140630 | 77 | 158 | 1.7 | 7.8 | 0.00 | 0.01 | 0.00 | 95 | 1000.8 |
| 20260506140527 | 76 | 158 | 1.7 | 7.8 | 0.00 | 0.01 | 0.00 | 95 | 1000.8 |
| 20260506140426 | 76 | 158 | 1.7 | 7.8 | 0.00 | 0.01 | 0.00 | 95 | 1000.8 |
| 20260506140325 | 76 | 158 | 3.5 | 7.8 | 0.00 | 0.01 | 0.00 | 95 | 1000.7 |
| 20260506140223 | 76 | 157 | 3.5 | 7.8 | 0.00 | 0.01 | 0.00 | 95 | 1000.7 |
| 20260506140121 | 76 | 147 | 3.5 | 7.8 | 0.00 | 0.01 | 0.00 | 95 | 1000.8 |
| 20260506140022 | 76 | 169 | 4.3 | 7.8 | 0.00 | 0.01 | 0.00 | 95 | 1000.8 |
| 20260506135920 | 76 | 157 | 6.1 | 7.8 | 0.00 | 0.01 | 0.00 | 95 | 1000.8 |
| 20260506135818 | 76 | 157 | 6.1 | 7.8 | 0.00 | 0.01 | 0.00 | 95 | 1000.8 |
| 20260506135717 | 76 | 162 | 5.2 | 7.8 | 0.00 | 0.01 | 0.00 | 96 | 1000.9 |
| 20260506135615 | 76 | 166 | 4.3 | 6.1 | 0.00 | 0.01 | 0.00 | 96 | 1000.9 |
| 20260506135514 | 76 | 172 | 4.3 | 6.1 | 0.00 | 0.01 | 0.00 | 96 | 1000.9 |
| 20260506135412 | 76 | 188 | 4.3 | 6.1 | 0.00 | 0.01 | 0.00 | 96 | 1000.8 |
| 20260506135311 | 76 | 151 | 4.3 | 6.1 | 0.00 | 0.01 | 0.00 | 96 | 1000.9 |
| 20260506135209 | 76 | 173 | 4.3 | 6.1 | 0.00 | 0.01 | 0.00 | 96 | 1000.9 |
| 20260506135108 | 76 | 164 | 4.3 | 7.8 | 0.00 | 0.01 | 0.00 | 96 | 1001.0 |
| 20260506135006 | 76 | 161 | 4.3 | 7.8 | 0.00 | 0.01 | 0.00 | 96 | 1001.0 |
| 20260506134904 | 76 | 183 | 3.5 | 7.8 | 0.00 | 0.01 | 0.00 | 96 | 1001.0 |
| 20260506134803 | 76 | 192 | 2.6 | 7.8 | 0.00 | 0.01 | 0.00 | 96 | 1000.9 |
| 20260506134702 | 76 | 162 | 1.7 | 7.8 | 0.00 | 0.01 | 0.00 | 96 | 1001.0 |
| 20260506134604 | 76 | 161 | 2.6 | 7.8 | 0.00 | 0.01 | 0.00 | 96 | 1001.0 |
| 20260506134504 | 76 | 155 | 3.5 | 7.8 | 0.00 | 0.01 | 0.00 | 96 | 1001.0 |
| 20260506134403 | 76 | 175 | 5.2 | 7.8 | 0.00 | 0.01 | 0.00 | 96 | 1001.0 |
| 20260506134303 | 76 | 164 | 5.2 | 7.8 | 0.00 | 0.01 | 0.00 | 96 | 1001.0 |
| 20260506134203 | 76 | 169 | 4.3 | 6.1 | 0.00 | 0.01 | 0.00 | 96 | 1001.1 |
| 20260506134102 | 76 | 155 | 3.5 | 6.1 | 0.00 | 0.01 | 0.00 | 96 | 1001.1 |
| 20260506134002 | 76 | 162 | 3.5 | 6.1 | 0.00 | 0.01 | 0.00 | 96 | 1001.2 |
| 20260506133904 | 76 | 166 | 2.6 | 6.1 | 0.00 | 0.01 | 0.00 | 96 | 1001.1 |
| 20260506133803 | 76 | 152 | 2.6 | 6.1 | 0.00 | 0.01 | 0.00 | 96 | 1001.1 |
| 20260506133702 | 76 | 152 | 3.5 | 6.1 | 0.00 | 0.01 | 0.00 | 96 | 1001.2 |
| 20260506133602 | 76 | 169 | 3.5 | 6.1 | 0.00 | 0.01 | 0.00 | 96 | 1001.2 |
| 20260506133503 | 76 | 144 | 2.6 | 6.1 | 0.00 | 0.01 | 0.00 | 96 | 1001.2 |
| 20260506133402 | 76 | 127 | 2.6 | 6.1 | 0.00 | 0.01 | 0.00 | 96 | 1001.1 |
| 20260506133302 | 76 | 127 | 2.6 | 6.1 | 0.00 | 0.01 | 0.00 | 96 | 1001.2 |
| 20260506133203 | 76 | 130 | 2.6 | 6.1 | 0.00 | 0.01 | 0.00 | 96 | 1001.2 |
| 20260506133102 | 76 | 127 | 3.5 | 6.1 | 0.00 | 0.01 | 0.00 | 96 | 1001.1 |
| 20260506133002 | 76 | 140 | 2.6 | 6.1 | 0.00 | 0.01 | 0.00 | 96 | 1001.1 |
| 20260506132902 | 76 | 123 | 1.7 | 6.1 | 0.00 | 0.01 | 0.00 | 96 | 1001.1 |
| 20260506132802 | 76 | 164 | 1.7 | 6.1 | 0.00 | 0.01 | 0.00 | 96 | 1001.1 |
| 20260506132704 | 76 | 165 | 2.6 | 6.1 | 0.00 | 0.01 | 0.00 | 96 | 1001.1 |
| 20260506132602 | 76 | 166 | 2.6 | 6.1 | 0.00 | 0.01 | 0.00 | 96 | 1001.1 |
| 20260506132503 | 76 | 164 | 3.5 | 6.1 | 0.00 | 0.01 | 0.00 | 96 | 1001.2 |
| 20260506132402 | 76 | 155 | 3.5 | 6.1 | 0.00 | 0.01 | 0.00 | 96 | 1001.1 |
| 20260506132305 | 76 | 159 | 3.5 | 6.1 | 0.00 | 0.01 | 0.00 | 96 | 1001.1 |
| 20260506132203 | 76 | 155 | 3.5 | 5.2 | 0.00 | 0.01 | 0.00 | 96 | 1001.1 |
| 20260506132102 | 76 | 140 | 3.5 | 5.2 | 0.00 | 0.01 | 0.00 | 96 | 1001.0 |
| 20260506132002 | 76 | 135 | 3.5 | 5.2 | 0.00 | 0.01 | 0.00 | 96 | 1001.1 |
| 20260506131902 | 76 | 145 | 3.5 | 5.2 | 0.00 | 0.02 | 0.00 | 96 | 1001.1 |
| 20260506131804 | 76 | 159 | 3.5 | 5.2 | 0.00 | 0.02 | 0.00 | 96 | 1001.0 |
| 20260506131702 | 76 | 145 | 3.5 | 5.2 | 0.00 | 0.02 | 0.00 | 96 | 1001.1 |
| 20260506131602 | 76 | 127 | 3.5 | 5.2 | 0.00 | 0.02 | 0.00 | 96 | 1001.1 |
| 20260506131503 | 76 | 121 | 3.5 | 5.2 | 0.00 | 0.02 | 0.00 | 96 | 1001.1 |
| 20260506131402 | 76 | 148 | 3.5 | 5.2 | 0.00 | 0.02 | 0.00 | 96 | 1001.1 |
| 20260506131302 | 76 | 142 | 3.5 | 5.2 | 0.00 | 0.02 | 0.00 | 96 | 1001.1 |
| 20260506131201 | 76 | 151 | 2.6 | 5.2 | 0.00 | 0.02 | 0.00 | 96 | 1001.1 |
| 20260506131103 | 76 | 154 | 2.6 | 5.2 | 0.00 | 0.02 | 0.00 | 96 | 1001.1 |
| 20260506131003 | 76 | 158 | 2.6 | 5.2 | 0.00 | 0.02 | 0.00 | 96 | 1001.1 |
| 20260506130901 | 76 | 158 | 2.6 | 5.2 | 0.00 | 0.02 | 0.00 | 96 | 1001.1 |
| 20260506130803 | 76 | 131 | 3.5 | 5.2 | 0.00 | 0.02 | 0.00 | 96 | 1001.2 |
| 20260506130703 | 76 | 125 | 3.5 | 5.2 | 0.00 | 0.02 | 0.00 | 96 | 1001.1 |
| 20260506130602 | 76 | 118 | 2.6 | 5.2 | 0.00 | 0.02 | 0.00 | 96 | 1001.2 |
| 20260506130502 | 76 | 125 | 1.7 | 5.2 | 0.00 | 0.02 | 0.00 | 96 | 1001.1 |
| 20260506130403 | 76 | 134 | 2.6 | 5.2 | 0.00 | 0.02 | 0.00 | 96 | 1001.2 |
| 20260506130304 | 76 | 128 | 2.6 | 5.2 | 0.00 | 0.02 | 0.00 | 96 | 1001.2 |
| 20260506130202 | 75 | 127 | 2.6 | 5.2 | 0.00 | 0.02 | 0.00 | 96 | 1001.2 |
| 20260506130103 | 75 | 127 | 2.6 | 5.2 | 0.00 | 0.02 | 0.00 | 96 | 1001.2 |
| 20260506130003 | 76 | 0 | 1.7 | 5.2 | 0.00 | 0.02 | 0.00 | 96 | 1001.3 |
| 20260506125902 | 75 | 123 | 3.5 | 5.2 | 0.00 | 0.02 | 0.00 | 96 | 1001.2 |
| 20260506125802 | 75 | 158 | 3.5 | 5.2 | 0.00 | 0.02 | 0.00 | 96 | 1001.2 |
| 20260506125702 | 75 | 140 | 3.5 | 5.2 | 0.00 | 0.02 | 0.00 | 96 | 1001.2 |
| 20260506125603 | 75 | 151 | 2.6 | 4.3 | 0.00 | 0.02 | 0.00 | 96 | 1001.2 |
| 20260506125502 | 75 | 147 | 3.5 | 4.3 | 0.00 | 0.02 | 0.00 | 96 | 1001.0 |
| 20260506125403 | 75 | 144 | 2.6 | 4.3 | 0.00 | 0.02 | 0.00 | 96 | 1001.1 |
| 20260506125304 | 75 | 127 | 2.6 | 5.2 | 0.00 | 0.02 | 0.00 | 96 | 1001.0 |
| 20260506125202 | 75 | 166 | 2.6 | 5.2 | 0.00 | 0.02 | 0.00 | 96 | 1001.0 |
| 20260506125104 | 75 | 152 | 1.7 | 5.2 | 0.00 | 0.02 | 0.00 | 96 | 1001.0 |
| 20260506125003 | 75 | 152 | 2.6 | 5.2 | 0.00 | 0.02 | 0.00 | 96 | 1000.9 |
| 20260506124902 | 75 | 152 | 2.6 | 6.1 | 0.00 | 0.02 | 0.00 | 96 | 1001.0 |
| 20260506124802 | 75 | 152 | 3.5 | 6.1 | 0.00 | 0.02 | 0.00 | 96 | 1000.9 |
| 20260506124703 | 75 | 148 | 3.5 | 6.1 | 0.00 | 0.02 | 0.00 | 96 | 1000.9 |
| 20260506124602 | 75 | 148 | 3.5 | 6.1 | 0.00 | 0.02 | 0.00 | 96 | 1000.9 |
| 20260506124502 | 75 | 147 | 3.5 | 6.1 | 0.00 | 0.02 | 0.00 | 96 | 1000.9 |
| 20260506124403 | 75 | 147 | 3.5 | 6.1 | 0.00 | 0.02 | 0.00 | 96 | 1001.0 |
| 20260506124302 | 75 | 145 | 3.5 | 6.1 | 0.00 | 0.02 | 0.00 | 96 | 1000.9 |
| 20260506124202 | 75 | 141 | 3.5 | 6.1 | 0.00 | 0.02 | 0.00 | 96 | 1000.9 |
| 20260506124102 | 75 | 149 | 4.3 | 6.1 | 0.00 | 0.02 | 0.00 | 96 | 1000.9 |
| 20260506124004 | 75 | 189 | 4.3 | 6.1 | 0.00 | 0.02 | 0.00 | 96 | 1000.9 |
| 20260506123902 | 75 | 151 | 4.3 | 5.2 | 0.00 | 0.02 | 0.00 | 96 | 1000.9 |
| 20260506123802 | 75 | 158 | 3.5 | 5.2 | 0.00 | 0.02 | 0.00 | 96 | 1000.9 |
| 20260506123703 | 75 | 154 | 4.3 | 5.2 | 0.00 | 0.02 | 0.00 | 96 | 1000.9 |
| 20260506123602 | 75 | 155 | 4.3 | 5.2 | 0.00 | 0.02 | 0.00 | 96 | 1000.9 |
| 20260506123501 | 75 | 151 | 3.5 | 5.2 | 0.00 | 0.02 | 0.00 | 96 | 1000.9 |
| 20260506123403 | 75 | 165 | 3.5 | 5.2 | 0.00 | 0.02 | 0.00 | 96 | 1000.8 |
| 20260506123302 | 75 | 162 | 3.5 | 5.2 | 0.00 | 0.02 | 0.00 | 96 | 1000.9 |
| 20260506123203 | 75 | 165 | 3.5 | 5.2 | 0.00 | 0.02 | 0.00 | 96 | 1000.9 |
| 20260506123102 | 75 | 144 | 3.5 | 4.3 | 0.00 | 0.02 | 0.00 | 96 | 1000.9 |
| 20260506123004 | 75 | 144 | 2.6 | 4.3 | 0.00 | 0.02 | 0.00 | 96 | 1000.8 |
| 20260506122902 | 75 | 130 | 3.5 | 4.3 | 0.00 | 0.02 | 0.00 | 96 | 1000.9 |
| 20260506122802 | 75 | 140 | 2.6 | 4.3 | 0.00 | 0.02 | 0.00 | 96 | 1000.9 |
| 20260506122702 | 75 | 148 | 0.0 | 3.5 | 0.00 | 0.02 | 0.00 | 96 | 1000.9 |
| 20260506122603 | 75 | 152 | 0.0 | 0.0 | 0.00 | 0.02 | 0.00 | 96 | 1000.9 |
| 20260506122503 | 75 | 151 | 0.0 | 0.0 | 0.00 | 0.02 | 0.00 | 96 | 1000.9 |
| 20260506122402 | 75 | 144 | 0.0 | 0.0 | 0.00 | 0.02 | 0.00 | 96 | 1000.9 |
| 20260506122305 | 75 | 144 | 0.0 | 0.0 | 0.00 | 0.02 | 0.00 | 96 | 1000.8 |
| 20260506122202 | 75 | 144 | 0.0 | 0.0 | 0.00 | 0.02 | 0.00 | 96 | 1000.9 |
| 20260506122102 | 75 | 142 | 0.0 | 0.0 | 0.00 | 0.02 | 0.00 | 96 | 1000.8 |
| 20260506122003 | 75 | 149 | 0.0 | 0.0 | 0.00 | 0.02 | 0.00 | 96 | 1000.7 |
| 20260506121902 | 75 | 152 | 0.0 | 0.0 | 0.00 | 0.02 | 0.00 | 96 | 1000.8 |
| 20260506121802 | 75 | 152 | 0.0 | 0.0 | 0.00 | 0.02 | 0.00 | 96 | 1000.9 |
| 20260506121704 | 75 | 154 | 0.0 | 0.0 | 0.00 | 0.02 | 0.00 | 96 | 1000.8 |
| 20260506121603 | 75 | 155 | 0.0 | 0.0 | 0.00 | 0.02 | 0.00 | 96 | 1000.7 |
| 20260506121502 | 75 | 157 | 0.0 | 0.0 | 0.00 | 0.02 | 0.00 | 96 | 1000.8 |
| 20260506121403 | 75 | 158 | 0.0 | 0.0 | 0.00 | 0.02 | 0.00 | 96 | 1000.7 |
| 20260506121304 | 75 | 158 | 0.0 | 0.0 | 0.00 | 0.02 | 0.00 | 96 | 1000.8 |
| 20260506121202 | 75 | 159 | 0.0 | 0.0 | 0.00 | 0.02 | 0.00 | 96 | 1000.8 |
| 20260506121102 | 75 | 159 | 0.0 | 0.0 | 0.00 | 0.02 | 0.00 | 96 | 1000.7 |
| 20260506121003 | 75 | 161 | 0.0 | 0.0 | 0.00 | 0.02 | 0.00 | 96 | 1000.7 |
| 20260506120902 | 75 | 161 | 0.0 | 0.0 | 0.00 | 0.02 | 0.00 | 96 | 1000.7 |
| 20260506120802 | 75 | 161 | 0.0 | 0.0 | 0.00 | 0.02 | 0.00 | 96 | 1000.7 |
| 20260506120703 | 75 | 161 | 0.0 | 0.0 | 0.00 | 0.02 | 0.00 | 96 | 1000.6 |
| 20260506120603 | 75 | 161 | 0.0 | 0.0 | 0.00 | 0.02 | 0.00 | 96 | 1000.7 |
| 20260506120504 | 75 | 161 | 0.0 | 0.0 | 0.00 | 0.02 | 0.00 | 96 | 1000.6 |
| 20260506120402 | 75 | 161 | 0.0 | 0.0 | 0.00 | 0.02 | 0.00 | 96 | 1000.8 |
| 20260506120302 | 75 | 162 | 0.0 | 0.0 | 0.00 | 0.02 | 0.00 | 96 | 1000.7 |
| 20260506120202 | 75 | 162 | 0.0 | 0.0 | 0.00 | 0.02 | 0.00 | 96 | 1000.6 |
| 20260506120003 | 75 | 162 | 0.0 | 0.0 | 0.00 | 0.02 | 0.00 | 96 | 1000.7 |
| 20260506115904 | 75 | 162 | 0.0 | 0.0 | 0.00 | 0.02 | 0.00 | 96 | 1000.7 |
| 20260506115803 | 75 | 162 | 0.0 | 0.0 | 0.00 | 0.02 | 0.00 | 96 | 1000.7 |
| 20260506115702 | 75 | 162 | 0.0 | 0.0 | 0.00 | 0.02 | 0.00 | 96 | 1000.7 |
| 20260506115603 | 75 | 164 | 0.0 | 0.0 | 0.00 | 0.02 | 0.00 | 96 | 1000.7 |
| 20260506115502 | 75 | 164 | 0.0 | 0.0 | 0.00 | 0.02 | 0.00 | 96 | 1000.7 |
| 20260506115403 | 75 | 164 | 0.0 | 0.0 | 0.00 | 0.02 | 0.00 | 96 | 1000.7 |
| 20260506115306 | 75 | 164 | 0.0 | 0.0 | 0.00 | 0.02 | 0.00 | 96 | 1000.7 |
| 20260506115204 | 75 | 164 | 0.0 | 0.0 | 0.00 | 0.02 | 0.00 | 96 | 1000.7 |
| 20260506115102 | 75 | 165 | 0.0 | 0.0 | 0.00 | 0.02 | 0.00 | 96 | 1000.7 |
| 20260506115000 | 75 | 165 | 0.0 | 0.0 | 0.00 | 0.02 | 0.00 | 96 | 1000.6 |
| 20260506114859 | 75 | 165 | 0.0 | 0.0 | 0.00 | 0.02 | 0.00 | 96 | 1000.6 |
| 20260506114759 | 75 | 165 | 0.0 | 0.0 | 0.00 | 0.02 | 0.00 | 96 | 1000.5 |
| 20260506114700 | 75 | 166 | 0.0 | 0.0 | 0.00 | 0.02 | 0.00 | 96 | 1000.5 |
| 20260506114558 | 75 | 166 | 0.0 | 0.0 | 0.00 | 0.02 | 0.00 | 96 | 1000.4 |
| 20260506114459 | 75 | 166 | 0.0 | 0.0 | 0.00 | 0.02 | 0.00 | 96 | 1000.4 |
| 20260506114358 | 75 | 166 | 0.0 | 0.0 | 0.00 | 0.02 | 0.00 | 96 | 1000.4 |
| 20260506114300 | 75 | 168 | 0.0 | 0.0 | 0.00 | 0.02 | 0.00 | 96 | 1000.4 |
| 20260506114158 | 75 | 168 | 0.0 | 0.0 | 0.00 | 0.02 | 0.00 | 96 | 1000.3 |
| 20260506114059 | 75 | 168 | 0.0 | 0.0 | 0.00 | 0.02 | 0.00 | 96 | 1000.4 |
| 20260506113959 | 75 | 180 | 0.0 | 0.0 | 0.00 | 0.02 | 0.00 | 96 | 1000.3 |
| 20260506113858 | 75 | 182 | 0.0 | 0.0 | 0.00 | 0.02 | 0.00 | 96 | 1000.3 |
| 20260506113759 | 75 | 183 | 0.0 | 0.0 | 0.00 | 0.02 | 0.00 | 96 | 1000.3 |
| 20260506113658 | 75 | 183 | 0.0 | 0.0 | 0.00 | 0.02 | 0.00 | 96 | 1000.3 |
| 20260506113559 | 75 | 183 | 0.0 | 0.0 | 0.00 | 0.02 | 0.00 | 95 | 1000.4 |
| 20260506113459 | 75 | 183 | 0.0 | 0.0 | 0.00 | 0.02 | 0.00 | 95 | 1000.3 |
| 20260506113358 | 75 | 183 | 0.0 | 0.0 | 0.00 | 0.02 | 0.00 | 95 | 1000.3 |
| 20260506113259 | 75 | 185 | 0.0 | 0.0 | 0.00 | 0.02 | 0.00 | 95 | 1000.4 |
| 20260506113159 | 75 | 185 | 0.0 | 0.0 | 0.00 | 0.02 | 0.00 | 95 | 1000.5 |
| 20260506113058 | 75 | 185 | 0.0 | 0.0 | 0.00 | 0.02 | 0.00 | 95 | 1000.6 |
| 20260506112958 | 75 | 185 | 0.0 | 0.0 | 0.00 | 0.02 | 0.00 | 95 | 1000.6 |
| 20260506112859 | 75 | 185 | 0.0 | 0.0 | 0.00 | 0.02 | 0.00 | 95 | 1000.5 |
| 20260506112758 | 75 | 193 | 0.0 | 0.0 | 0.00 | 0.02 | 0.00 | 95 | 1000.5 |
| 20260506112658 | 75 | 193 | 0.0 | 0.0 | 0.00 | 0.02 | 0.00 | 95 | 1000.5 |
| 20260506112600 | 75 | 193 | 0.0 | 0.0 | 0.00 | 0.02 | 0.00 | 96 | 1000.5 |
| 20260506112458 | 75 | 193 | 0.0 | 0.0 | 0.00 | 0.02 | 0.00 | 95 | 1000.5 |
| 20260506112359 | 75 | 193 | 0.0 | 0.0 | 0.00 | 0.02 | 0.00 | 95 | 1000.4 |
| 20260506112259 | 75 | 193 | 0.0 | 0.0 | 0.00 | 0.02 | 0.00 | 95 | 1000.5 |
| 20260506112158 | 75 | 195 | 0.0 | 0.0 | 0.00 | 0.02 | 0.00 | 95 | 1000.4 |
| 20260506112058 | 75 | 195 | 0.0 | 0.0 | 0.00 | 0.02 | 0.00 | 96 | 1000.5 |
| 20260506111958 | 75 | 195 | 0.0 | 0.0 | 0.00 | 0.02 | 0.00 | 95 | 1000.4 |
| 20260506111859 | 75 | 195 | 0.0 | 0.0 | 0.00 | 0.02 | 0.00 | 96 | 1000.4 |
| 20260506111758 | 75 | 195 | 0.0 | 0.9 | 0.00 | 0.02 | 0.00 | 96 | 1000.3 |
| 20260506111658 | 75 | 195 | 0.0 | 0.9 | 0.00 | 0.02 | 0.00 | 95 | 1000.3 |
| 20260506111559 | 74 | 195 | 0.0 | 0.9 | 0.00 | 0.02 | 0.00 | 95 | 1000.3 |
| 20260506111458 | 74 | 195 | 0.0 | 0.9 | 0.00 | 0.02 | 0.00 | 95 | 1000.2 |
| 20260506111359 | 75 | 195 | 0.0 | 0.9 | 0.00 | 0.02 | 0.00 | 95 | 1000.1 |
| 20260506111258 | 75 | 195 | 0.0 | 0.9 | 0.00 | 0.02 | 0.00 | 95 | 1000.2 |
| 20260506111159 | 75 | 196 | 0.0 | 0.9 | 0.00 | 0.02 | 0.00 | 95 | 1000.2 |
| 20260506111057 | 75 | 196 | 0.0 | 0.9 | 0.00 | 0.02 | 0.00 | 95 | 1000.1 |
| 20260506110958 | 75 | 196 | 0.0 | 6.1 | 0.00 | 0.02 | 0.00 | 95 | 1000.0 |
| 20260506110900 | 75 | 196 | 0.0 | 6.1 | 0.00 | 0.02 | 0.00 | 95 | 1000.1 |
| 20260506110800 | 75 | 186 | 0.0 | 6.1 | 0.00 | 0.02 | 0.00 | 95 | 1000.1 |
| 20260506110658 | 75 | 173 | 0.0 | 8.7 | 0.00 | 0.02 | 0.00 | 95 | 1000.1 |
| 20260506110558 | 75 | 189 | 0.0 | 8.7 | 0.00 | 0.02 | 0.00 | 95 | 1000.0 |
| 20260506110459 | 75 | 188 | 0.0 | 8.7 | 0.00 | 0.02 | 0.00 | 95 | 1000.0 |
| 20260506110358 | 75 | 188 | 0.0 | 8.7 | 0.00 | 0.02 | 0.00 | 95 | 1000.0 |
| 20260506110257 | 75 | 182 | 0.0 | 8.7 | 0.00 | 0.02 | 0.00 | 95 | 999.9 |
| 20260506110157 | 75 | 159 | 1.7 | 8.7 | 0.00 | 0.02 | 0.00 | 95 | 999.9 |
| 20260506110058 | 75 | 159 | 3.5 | 8.7 | 0.00 | 0.02 | 0.00 | 95 | 999.9 |
| 20260506105957 | 75 | 161 | 3.5 | 8.7 | 0.00 | 0.02 | 0.00 | 95 | 1000.0 |
| 20260506105858 | 75 | 164 | 5.2 | 8.7 | 0.00 | 0.02 | 0.00 | 95 | 999.9 |
| 20260506105759 | 75 | 178 | 5.2 | 8.7 | 0.00 | 0.02 | 0.00 | 95 | 999.8 |
| 20260506105657 | 75 | 154 | 4.3 | 8.7 | 0.00 | 0.02 | 0.00 | 95 | 999.9 |
| 20260506105558 | 75 | 171 | 4.3 | 8.7 | 0.00 | 0.02 | 0.00 | 95 | 999.9 |
| 20260506105459 | 75 | 168 | 5.2 | 8.7 | 0.00 | 0.02 | 0.00 | 95 | 999.9 |
| 20260506105357 | 75 | 168 | 3.5 | 9.6 | 0.00 | 0.03 | 0.00 | 95 | 999.9 |
| 20260506105255 | 75 | 189 | 4.3 | 9.6 | 0.00 | 0.03 | 0.00 | 95 | 999.9 |
| 20260506105154 | 75 | 158 | 5.2 | 9.6 | 0.00 | 0.03 | 0.00 | 95 | 999.9 |
| 20260506105053 | 75 | 176 | 5.2 | 11.3 | 0.00 | 0.03 | 0.00 | 95 | 999.8 |
| 20260506104952 | 75 | 173 | 6.1 | 11.3 | 0.00 | 0.03 | 0.00 | 95 | 999.8 |
| 20260506104850 | 75 | 168 | 5.2 | 11.3 | 0.00 | 0.03 | 0.00 | 95 | 999.8 |
| 20260506104748 | 75 | 165 | 4.3 | 11.3 | 0.00 | 0.03 | 0.00 | 95 | 999.8 |
| 20260506104647 | 75 | 171 | 4.3 | 11.3 | 0.00 | 0.03 | 0.00 | 95 | 999.7 |
| 20260506104546 | 75 | 158 | 6.1 | 11.3 | 0.00 | 0.03 | 0.00 | 95 | 999.8 |
| 20260506104444 | 75 | 162 | 6.1 | 11.3 | 0.00 | 0.03 | 0.00 | 95 | 999.7 |
| 20260506104343 | 75 | 145 | 6.1 | 11.3 | 0.00 | 0.03 | 0.00 | 95 | 999.7 |
| 20260506104241 | 75 | 166 | 6.1 | 11.3 | 0.00 | 0.03 | 0.00 | 95 | 999.7 |
| 20260506104140 | 75 | 169 | 5.2 | 9.6 | 0.00 | 0.03 | 0.00 | 95 | 999.6 |
| 20260506104038 | 75 | 154 | 5.2 | 9.6 | 0.00 | 0.03 | 0.00 | 95 | 999.6 |
| 20260506103936 | 75 | 171 | 6.1 | 9.6 | 0.00 | 0.03 | 0.00 | 95 | 999.6 |
| 20260506103835 | 75 | 165 | 7.0 | 9.6 | 0.00 | 0.03 | 0.00 | 95 | 999.5 |
| 20260506103733 | 75 | 157 | 6.1 | 9.6 | 0.00 | 0.03 | 0.00 | 95 | 999.5 |
| 20260506103632 | 75 | 165 | 6.1 | 12.2 | 0.00 | 0.03 | 0.00 | 95 | 999.4 |
| 20260506103531 | 75 | 152 | 6.1 | 12.2 | 0.00 | 0.03 | 0.00 | 95 | 999.4 |
| 20260506103430 | 75 | 176 | 6.1 | 12.2 | 0.00 | 0.03 | 0.00 | 95 | 999.4 |
| 20260506103331 | 75 | 166 | 6.1 | 12.2 | 0.00 | 0.03 | 0.00 | 95 | 999.4 |
| 20260506103231 | 75 | 171 | 6.1 | 12.2 | 0.00 | 0.03 | 0.00 | 95 | 999.4 |
| 20260506103131 | 75 | 164 | 6.1 | 12.2 | 0.00 | 0.03 | 0.00 | 95 | 999.4 |
| 20260506103031 | 75 | 159 | 7.0 | 12.2 | 0.00 | 0.03 | 0.00 | 95 | 999.4 |
| 20260506102931 | 75 | 179 | 7.8 | 12.2 | 0.00 | 0.03 | 0.00 | 95 | 999.5 |
| 20260506102828 | 75 | 148 | 7.8 | 12.2 | 0.00 | 0.03 | 0.00 | 95 | 999.5 |
| 20260506102728 | 75 | 164 | 7.8 | 12.2 | 0.00 | 0.03 | 0.00 | 95 | 999.6 |
| 20260506102627 | 75 | 145 | 7.0 | 10.4 | 0.00 | 0.03 | 0.00 | 95 | 999.5 |
| 20260506102525 | 75 | 147 | 6.1 | 10.4 | 0.00 | 0.03 | 0.00 | 95 | 999.5 |
| 20260506102425 | 75 | 165 | 5.2 | 11.3 | 0.00 | 0.03 | 0.00 | 95 | 999.5 |
| 20260506102321 | 75 | 180 | 6.1 | 11.3 | 0.00 | 0.03 | 0.00 | 95 | 999.6 |
| 20260506102221 | 75 | 158 | 7.0 | 11.3 | 0.00 | 0.03 | 0.00 | 95 | 999.6 |
| 20260506102119 | 75 | 166 | 7.0 | 11.3 | 0.00 | 0.03 | 0.00 | 95 | 999.6 |
| 20260506102018 | 75 | 193 | 7.0 | 11.3 | 0.00 | 0.03 | 0.00 | 95 | 999.6 |
| 20260506101916 | 75 | 169 | 7.0 | 11.3 | 0.00 | 0.03 | 0.00 | 95 | 999.6 |
| 20260506101816 | 75 | 172 | 7.0 | 11.3 | 0.00 | 0.03 | 0.00 | 95 | 999.6 |
| 20260506101714 | 75 | 173 | 7.0 | 11.3 | 0.00 | 0.03 | 0.00 | 95 | 999.7 |
| 20260506101612 | 75 | 154 | 7.8 | 11.3 | 0.00 | 0.03 | 0.00 | 95 | 999.7 |
| 20260506101510 | 75 | 161 | 7.8 | 11.3 | 0.00 | 0.03 | 0.00 | 95 | 999.7 |
| 20260506101409 | 75 | 168 | 7.0 | 11.3 | 0.00 | 0.03 | 0.00 | 95 | 999.7 |
| 20260506101307 | 75 | 169 | 7.0 | 11.3 | 0.00 | 0.03 | 0.00 | 95 | 999.8 |
| 20260506101206 | 75 | 155 | 7.0 | 11.3 | 0.00 | 0.03 | 0.00 | 95 | 999.7 |
| 20260506101104 | 75 | 165 | 6.1 | 9.6 | 0.00 | 0.03 | 0.00 | 95 | 999.7 |
| 20260506101004 | 75 | 186 | 5.2 | 9.6 | 0.00 | 0.03 | 0.00 | 95 | 999.6 |
| 20260506100903 | 75 | 166 | 6.1 | 9.6 | 0.00 | 0.03 | 0.00 | 95 | 999.5 |
| 20260506100803 | 75 | 168 | 7.0 | 9.6 | 0.00 | 0.03 | 0.00 | 95 | 999.6 |
| 20260506100702 | 75 | 178 | 6.1 | 9.6 | 0.00 | 0.03 | 0.00 | 95 | 999.5 |
| 20260506100602 | 75 | 158 | 6.1 | 9.6 | 0.00 | 0.03 | 0.00 | 95 | 999.4 |
| 20260506100503 | 75 | 155 | 7.0 | 10.4 | 0.00 | 0.03 | 0.00 | 95 | 999.4 |
| 20260506100402 | 75 | 190 | 7.0 | 12.2 | 0.00 | 0.03 | 0.00 | 95 | 999.5 |
| 20260506100303 | 75 | 168 | 7.0 | 12.2 | 0.00 | 0.03 | 0.00 | 95 | 999.4 |
| 20260506100202 | 75 | 161 | 7.0 | 12.2 | 0.00 | 0.03 | 0.00 | 95 | 999.5 |
| 20260506100004 | 75 | 159 | 5.2 | 12.2 | 0.00 | 0.03 | 0.00 | 95 | 999.5 |
| 20260506095903 | 75 | 169 | 5.2 | 13.0 | 0.00 | 0.03 | 0.00 | 95 | 999.5 |
| 20260506095802 | 75 | 161 | 6.1 | 13.0 | 0.00 | 0.03 | 0.00 | 95 | 999.5 |
| 20260506095703 | 75 | 172 | 7.0 | 13.0 | 0.00 | 0.03 | 0.00 | 95 | 999.6 |
| 20260506095603 | 75 | 179 | 8.7 | 13.0 | 0.00 | 0.03 | 0.00 | 95 | 999.5 |
| 20260506095504 | 75 | 166 | 9.6 | 13.0 | 0.00 | 0.03 | 0.00 | 95 | 999.6 |
| 20260506095402 | 75 | 178 | 9.6 | 13.0 | 0.00 | 0.03 | 0.00 | 95 | 999.6 |
| 20260506095305 | 76 | 155 | 7.8 | 13.0 | 0.00 | 0.03 | 0.00 | 95 | 999.6 |
| 20260506095203 | 75 | 173 | 7.0 | 13.0 | 0.00 | 0.03 | 0.00 | 95 | 999.5 |
| 20260506095102 | 75 | 185 | 7.8 | 13.0 | 0.00 | 0.03 | 0.00 | 95 | 999.5 |
| 20260506095004 | 76 | 171 | 7.8 | 13.0 | 0.00 | 0.03 | 0.00 | 95 | 999.5 |
| 20260506094903 | 76 | 149 | 7.8 | 13.0 | 0.00 | 0.03 | 0.00 | 95 | 999.6 |
| 20260506094802 | 76 | 171 | 7.8 | 13.0 | 0.00 | 0.03 | 0.00 | 95 | 999.5 |
| 20260506094701 | 76 | 168 | 7.8 | 13.0 | 0.00 | 0.03 | 0.00 | 95 | 999.5 |
| 20260506094603 | 76 | 179 | 7.8 | 13.0 | 0.00 | 0.03 | 0.00 | 95 | 999.5 |
| 20260506094503 | 76 | 189 | 7.8 | 13.0 | 0.00 | 0.03 | 0.00 | 95 | 999.5 |
| 20260506094402 | 76 | 165 | 6.1 | 12.2 | 0.00 | 0.03 | 0.00 | 95 | 999.5 |
| 20260506094303 | 76 | 151 | 5.2 | 12.2 | 0.00 | 0.03 | 0.00 | 95 | 999.5 |
| 20260506094202 | 76 | 178 | 6.1 | 12.2 | 0.00 | 0.03 | 0.00 | 95 | 999.5 |
| 20260506094102 | 76 | 183 | 7.0 | 12.2 | 0.00 | 0.03 | 0.00 | 95 | 999.4 |
| 20260506094003 | 76 | 179 | 7.8 | 12.2 | 0.00 | 0.03 | 0.00 | 95 | 999.4 |
| 20260506093903 | 76 | 166 | 8.7 | 12.2 | 0.00 | 0.03 | 0.00 | 95 | 999.4 |
| 20260506093803 | 76 | 183 | 7.8 | 12.2 | 0.00 | 0.03 | 0.00 | 95 | 999.4 |
| 20260506093703 | 76 | 193 | 7.8 | 11.3 | 0.00 | 0.03 | 0.00 | 95 | 999.4 |
| 20260506093603 | 76 | 175 | 7.8 | 11.3 | 0.00 | 0.03 | 0.00 | 95 | 999.3 |
| 20260506093504 | 76 | 155 | 7.8 | 11.3 | 0.00 | 0.03 | 0.00 | 95 | 999.4 |
| 20260506093402 | 76 | 165 | 7.0 | 11.3 | 0.00 | 0.03 | 0.00 | 95 | 999.4 |
| 20260506093304 | 76 | 165 | 7.0 | 11.3 | 0.00 | 0.03 | 0.00 | 95 | 999.4 |
| 20260506093202 | 76 | 182 | 6.1 | 11.3 | 0.00 | 0.03 | 0.00 | 95 | 999.3 |
| 20260506093102 | 76 | 169 | 7.0 | 11.3 | 0.00 | 0.03 | 0.00 | 95 | 999.4 |
| 20260506093002 | 76 | 175 | 7.0 | 12.2 | 0.00 | 0.03 | 0.00 | 95 | 999.4 |
| 20260506092903 | 76 | 155 | 6.1 | 12.2 | 0.00 | 0.03 | 0.00 | 95 | 999.4 |
| 20260506092802 | 76 | 179 | 6.1 | 12.2 | 0.00 | 0.03 | 0.00 | 95 | 999.3 |
| 20260506092702 | 76 | 166 | 6.1 | 13.9 | 0.00 | 0.03 | 0.00 | 95 | 999.3 |
| 20260506092604 | 76 | 175 | 7.0 | 13.9 | 0.00 | 0.03 | 0.00 | 95 | 999.2 |
| 20260506092503 | 76 | 154 | 7.8 | 13.9 | 0.00 | 0.03 | 0.00 | 95 | 999.2 |
| 20260506092402 | 76 | 186 | 7.0 | 13.9 | 0.00 | 0.03 | 0.00 | 95 | 999.2 |
| 20260506092305 | 76 | 166 | 7.0 | 13.9 | 0.00 | 0.03 | 0.00 | 95 | 999.2 |
| 20260506092203 | 76 | 161 | 8.7 | 13.9 | 0.00 | 0.03 | 0.00 | 95 | 999.2 |
| 20260506092102 | 76 | 169 | 8.7 | 13.9 | 0.00 | 0.03 | 0.00 | 95 | 999.3 |
| 20260506092003 | 76 | 193 | 7.8 | 13.9 | 0.00 | 0.03 | 0.00 | 95 | 999.1 |
| 20260506091903 | 76 | 188 | 7.8 | 13.9 | 0.00 | 0.03 | 0.00 | 95 | 999.3 |
| 20260506091802 | 76 | 169 | 7.8 | 13.9 | 0.00 | 0.03 | 0.00 | 95 | 999.3 |
| 20260506091702 | 76 | 180 | 7.0 | 11.3 | 0.00 | 0.03 | 0.00 | 95 | 999.2 |
| 20260506091602 | 76 | 159 | 6.1 | 10.4 | 0.00 | 0.03 | 0.00 | 95 | 999.2 |
| 20260506091503 | 76 | 155 | 6.1 | 10.4 | 0.00 | 0.03 | 0.00 | 95 | 999.3 |
| 20260506091402 | 76 | 178 | 6.1 | 10.4 | 0.00 | 0.03 | 0.00 | 95 | 999.3 |
| 20260506091302 | 76 | 173 | 6.1 | 10.4 | 0.00 | 0.03 | 0.00 | 95 | 999.3 |
| 20260506091203 | 76 | 169 | 6.1 | 10.4 | 0.00 | 0.03 | 0.00 | 95 | 999.3 |
| 20260506091103 | 76 | 169 | 6.1 | 10.4 | 0.00 | 0.03 | 0.00 | 95 | 999.2 |
| 20260506091002 | 76 | 161 | 6.1 | 10.4 | 0.00 | 0.03 | 0.00 | 95 | 999.3 |
| 20260506090904 | 76 | 168 | 7.0 | 10.4 | 0.00 | 0.03 | 0.00 | 95 | 999.2 |
| 20260506090803 | 76 | 155 | 7.0 | 10.4 | 0.00 | 0.03 | 0.00 | 95 | 999.2 |
| 20260506090702 | 76 | 162 | 7.0 | 10.4 | 0.00 | 0.03 | 0.00 | 95 | 999.2 |
| 20260506090603 | 76 | 154 | 7.0 | 10.4 | 0.00 | 0.03 | 0.00 | 95 | 999.2 |
| 20260506090504 | 76 | 148 | 7.0 | 10.4 | 0.00 | 0.03 | 0.00 | 95 | 999.2 |
| 20260506090402 | 76 | 178 | 7.0 | 11.3 | 0.00 | 0.03 | 0.00 | 95 | 999.2 |
| 20260506090302 | 76 | 157 | 7.0 | 11.3 | 0.00 | 0.03 | 0.00 | 95 | 999.2 |
| 20260506090203 | 76 | 172 | 7.0 | 11.3 | 0.00 | 0.03 | 0.00 | 95 | 999.2 |
| 20260506090004 | 76 | 162 | 7.8 | 11.3 | 0.00 | 0.03 | 0.00 | 95 | 999.2 |
| 20260506085902 | 76 | 162 | 7.8 | 11.3 | 0.00 | 0.03 | 0.00 | 95 | 999.2 |
| 20260506085803 | 76 | 173 | 7.8 | 11.3 | 0.00 | 0.03 | 0.00 | 95 | 999.2 |
| 20260506085701 | 76 | 186 | 7.8 | 11.3 | 0.00 | 0.03 | 0.00 | 95 | 999.2 |
| 20260506085602 | 76 | 169 | 7.8 | 11.3 | 0.00 | 0.03 | 0.00 | 95 | 999.2 |
| 20260506085504 | 76 | 183 | 7.8 | 11.3 | 0.00 | 0.03 | 0.00 | 95 | 999.1 |
| 20260506085402 | 76 | 168 | 7.8 | 11.3 | 0.00 | 0.03 | 0.00 | 95 | 999.2 |
| 20260506085301 | 76 | 151 | 7.8 | 11.3 | 0.00 | 0.03 | 0.00 | 95 | 999.2 |
| 20260506085203 | 76 | 151 | 7.8 | 11.3 | 0.00 | 0.03 | 0.00 | 95 | 999.2 |
| 20260506085103 | 76 | 169 | 7.8 | 11.3 | 0.00 | 0.03 | 0.00 | 95 | 999.3 |
| 20260506085002 | 76 | 169 | 7.8 | 11.3 | 0.00 | 0.03 | 0.00 | 95 | 999.3 |
| 20260506084902 | 76 | 159 | 7.0 | 9.6 | 0.00 | 0.03 | 0.00 | 95 | 999.4 |
| 20260506084803 | 76 | 179 | 7.0 | 9.6 | 0.00 | 0.03 | 0.00 | 95 | 999.4 |
| 20260506084702 | 76 | 173 | 6.1 | 11.3 | 0.00 | 0.03 | 0.00 | 95 | 999.4 |
| 20260506084602 | 76 | 172 | 5.2 | 11.3 | 0.00 | 0.03 | 0.00 | 95 | 999.5 |
| 20260506084503 | 76 | 164 | 5.2 | 11.3 | 0.00 | 0.03 | 0.00 | 95 | 999.5 |
| 20260506084403 | 76 | 192 | 6.1 | 11.3 | 0.00 | 0.03 | 0.00 | 95 | 999.5 |
| 20260506084302 | 76 | 162 | 6.1 | 11.3 | 0.00 | 0.03 | 0.00 | 95 | 999.5 |
| 20260506084202 | 76 | 185 | 6.1 | 11.3 | 0.00 | 0.03 | 0.00 | 95 | 999.4 |
| 20260506084102 | 76 | 166 | 6.1 | 11.3 | 0.00 | 0.03 | 0.00 | 95 | 999.4 |
| 20260506084002 | 76 | 168 | 6.1 | 11.3 | 0.00 | 0.03 | 0.00 | 95 | 999.4 |
| 20260506083903 | 76 | 186 | 7.0 | 11.3 | 0.00 | 0.03 | 0.00 | 95 | 999.4 |
| 20260506083803 | 76 | 179 | 7.0 | 11.3 | 0.00 | 0.03 | 0.00 | 95 | 999.4 |
| 20260506083702 | 76 | 161 | 7.0 | 9.6 | 0.00 | 0.03 | 0.00 | 95 | 999.4 |
| 20260506083602 | 76 | 192 | 6.1 | 9.6 | 0.00 | 0.03 | 0.00 | 95 | 999.5 |
| 20260506083503 | 76 | 169 | 5.2 | 9.6 | 0.00 | 0.03 | 0.00 | 95 | 999.5 |
| 20260506083403 | 76 | 164 | 5.2 | 9.6 | 0.00 | 0.03 | 0.00 | 95 | 999.5 |
| 20260506083302 | 76 | 162 | 6.1 | 9.6 | 0.00 | 0.03 | 0.00 | 95 | 999.5 |
| 20260506083202 | 76 | 185 | 6.1 | 9.6 | 0.00 | 0.03 | 0.00 | 95 | 999.6 |
| 20260506083103 | 76 | 175 | 6.1 | 10.4 | 0.00 | 0.03 | 0.00 | 95 | 999.6 |
| 20260506083002 | 76 | 162 | 7.0 | 10.4 | 0.00 | 0.03 | 0.00 | 95 | 999.5 |
| 20260506082902 | 76 | 176 | 7.0 | 10.4 | 0.00 | 0.03 | 0.00 | 95 | 999.4 |
| 20260506082804 | 76 | 182 | 6.1 | 10.4 | 0.00 | 0.03 | 0.00 | 95 | 999.4 |
| 20260506082704 | 76 | 169 | 5.2 | 10.4 | 0.00 | 0.03 | 0.00 | 95 | 999.4 |
| 20260506082602 | 76 | 172 | 5.2 | 10.4 | 0.00 | 0.03 | 0.00 | 95 | 999.5 |
| 20260506082503 | 76 | 173 | 6.1 | 10.4 | 0.00 | 0.03 | 0.00 | 95 | 999.4 |
| 20260506082403 | 76 | 155 | 5.2 | 10.4 | 0.00 | 0.03 | 0.00 | 95 | 999.4 |
| 20260506082304 | 76 | 172 | 6.1 | 10.4 | 0.00 | 0.03 | 0.00 | 95 | 999.4 |
| 20260506082202 | 76 | 165 | 7.0 | 10.4 | 0.00 | 0.03 | 0.00 | 95 | 999.5 |
| 20260506082103 | 76 | 162 | 6.1 | 9.6 | 0.00 | 0.03 | 0.00 | 95 | 999.5 |
| 20260506082003 | 76 | 159 | 5.2 | 9.6 | 0.00 | 0.03 | 0.00 | 95 | 999.5 |
| 20260506081902 | 76 | 161 | 6.1 | 9.6 | 0.00 | 0.03 | 0.00 | 95 | 999.4 |
| 20260506081802 | 76 | 154 | 6.1 | 9.6 | 0.00 | 0.04 | 0.00 | 95 | 999.5 |
| 20260506081703 | 76 | 164 | 6.1 | 9.6 | 0.00 | 0.04 | 0.00 | 95 | 999.5 |
| 20260506081602 | 76 | 161 | 5.2 | 9.6 | 0.00 | 0.04 | 0.00 | 95 | 999.5 |
| 20260506081503 | 76 | 165 | 5.2 | 9.6 | 0.00 | 0.04 | 0.00 | 95 | 999.4 |
| 20260506081403 | 76 | 175 | 6.1 | 9.6 | 0.00 | 0.04 | 0.00 | 95 | 999.4 |
| 20260506081302 | 76 | 154 | 6.1 | 9.6 | 0.00 | 0.04 | 0.00 | 95 | 999.5 |
| 20260506081201 | 76 | 164 | 5.2 | 8.7 | 0.00 | 0.04 | 0.00 | 95 | 999.6 |
| 20260506081103 | 76 | 179 | 6.1 | 8.7 | 0.00 | 0.04 | 0.00 | 95 | 999.5 |
| 20260506081004 | 76 | 164 | 5.2 | 8.7 | 0.00 | 0.04 | 0.00 | 95 | 999.5 |
| 20260506080902 | 76 | 166 | 5.2 | 8.7 | 0.00 | 0.04 | 0.00 | 95 | 999.6 |
| 20260506080802 | 76 | 159 | 6.1 | 8.7 | 0.00 | 0.04 | 0.00 | 95 | 999.6 |
| 20260506080703 | 76 | 149 | 5.2 | 8.7 | 0.00 | 0.04 | 0.00 | 94 | 999.6 |
| 20260506080601 | 76 | 172 | 5.2 | 8.7 | 0.00 | 0.04 | 0.00 | 94 | 999.6 |
| 20260506080500 | 76 | 164 | 5.2 | 8.7 | 0.00 | 0.04 | 0.00 | 94 | 999.7 |
| 20260506080358 | 76 | 168 | 5.2 | 8.7 | 0.00 | 0.04 | 0.00 | 94 | 999.8 |
| 20260506080257 | 76 | 165 | 5.2 | 8.7 | 0.00 | 0.04 | 0.00 | 94 | 999.7 |
| 20260506080155 | 76 | 161 | 5.2 | 8.7 | 0.00 | 0.04 | 0.00 | 94 | 999.8 |
| 20260506073452 | 76 | 200 | 4.3 | 8.7 | 0.00 | 0.04 | 0.00 | 94 | 1000.1 |
| 20260506073354 | 76 | 183 | 4.3 | 8.7 | 0.00 | 0.04 | 0.00 | 94 | 1000.0 |
| 20260506073252 | 76 | 197 | 5.2 | 8.7 | 0.00 | 0.04 | 0.00 | 94 | 1000.1 |
| 20260506073151 | 76 | 186 | 4.3 | 8.7 | 0.00 | 0.04 | 0.00 | 94 | 1000.1 |
| 20260506073050 | 76 | 185 | 4.3 | 8.7 | 0.00 | 0.04 | 0.00 | 94 | 1000.1 |
| 20260506072948 | 76 | 171 | 5.2 | 8.7 | 0.00 | 0.04 | 0.00 | 94 | 1000.2 |
| 20260506072847 | 76 | 196 | 6.1 | 9.6 | 0.00 | 0.04 | 0.00 | 94 | 1000.3 |
| 20260506072745 | 76 | 166 | 6.1 | 9.6 | 0.00 | 0.04 | 0.00 | 94 | 1000.3 |
| 20260506072644 | 76 | 176 | 5.2 | 9.6 | 0.00 | 0.04 | 0.00 | 94 | 1000.4 |
| 20260506072543 | 76 | 199 | 3.5 | 9.6 | 0.00 | 0.04 | 0.00 | 94 | 1000.3 |
| 20260506072441 | 76 | 185 | 3.5 | 9.6 | 0.00 | 0.04 | 0.00 | 94 | 1000.3 |
| 20260506072340 | 76 | 182 | 3.5 | 9.6 | 0.00 | 0.04 | 0.00 | 94 | 1000.3 |
| 20260506072238 | 76 | 182 | 3.5 | 9.6 | 0.00 | 0.04 | 0.00 | 94 | 1000.3 |
| 20260506072137 | 76 | 178 | 4.3 | 10.4 | 0.00 | 0.04 | 0.00 | 94 | 1000.3 |
| 20260506072035 | 76 | 189 | 5.2 | 10.4 | 0.00 | 0.04 | 0.00 | 94 | 1000.2 |
| 20260506071933 | 76 | 185 | 5.2 | 10.4 | 0.00 | 0.04 | 0.00 | 94 | 1000.3 |
| 20260506071832 | 76 | 178 | 4.3 | 10.4 | 0.00 | 0.04 | 0.00 | 94 | 1000.3 |
| 20260506071730 | 76 | 179 | 5.2 | 10.4 | 0.00 | 0.04 | 0.00 | 94 | 1000.3 |
| 20260506071631 | 76 | 165 | 5.2 | 10.4 | 0.00 | 0.04 | 0.00 | 94 | 1000.2 |
| 20260506071533 | 76 | 182 | 5.2 | 10.4 | 0.00 | 0.04 | 0.00 | 94 | 1000.4 |
| 20260506071431 | 76 | 164 | 5.2 | 10.4 | 0.00 | 0.04 | 0.00 | 94 | 1000.3 |
| 20260506071330 | 76 | 154 | 5.2 | 10.4 | 0.00 | 0.04 | 0.00 | 94 | 1000.2 |
| 20260506071228 | 76 | 186 | 5.2 | 10.4 | 0.00 | 0.04 | 0.00 | 94 | 1000.4 |
| 20260506071127 | 76 | 196 | 4.3 | 8.7 | 0.00 | 0.04 | 0.00 | 94 | 1000.3 |
| 20260506071025 | 76 | 176 | 4.3 | 7.8 | 0.00 | 0.04 | 0.00 | 94 | 1000.4 |
| 20260506070924 | 76 | 171 | 5.2 | 7.8 | 0.00 | 0.04 | 0.00 | 94 | 1000.3 |
| 20260506070822 | 76 | 195 | 5.2 | 8.7 | 0.00 | 0.04 | 0.00 | 94 | 1000.4 |
| 20260506070720 | 76 | 176 | 5.2 | 8.7 | 0.00 | 0.04 | 0.00 | 94 | 1000.4 |
| 20260506070619 | 76 | 189 | 5.2 | 8.7 | 0.00 | 0.04 | 0.00 | 94 | 1000.4 |
| 20260506070518 | 76 | 162 | 5.2 | 8.7 | 0.00 | 0.04 | 0.00 | 94 | 1000.4 |
| 20260506070416 | 76 | 188 | 5.2 | 8.7 | 0.00 | 0.04 | 0.00 | 94 | 1000.5 |
| 20260506070314 | 76 | 202 | 4.3 | 8.7 | 0.00 | 0.04 | 0.00 | 94 | 1000.5 |
| 20260506070213 | 76 | 168 | 4.3 | 8.7 | 0.00 | 0.04 | 0.00 | 94 | 1000.4 |
| 20260506070111 | 76 | 189 | 5.2 | 9.6 | 0.00 | 0.04 | 0.00 | 94 | 1000.5 |
| 20260506062451 | 76 | 171 | 6.1 | 9.6 | 0.00 | 0.04 | 0.00 | 93 | 1000.5 |
| 20260506062352 | 76 | 159 | 6.1 | 9.6 | 0.00 | 0.04 | 0.00 | 93 | 1000.6 |
| 20260506062252 | 76 | 180 | 6.1 | 9.6 | 0.00 | 0.04 | 0.00 | 93 | 1000.5 |
| 20260506062151 | 76 | 171 | 6.1 | 10.4 | 0.00 | 0.04 | 0.00 | 93 | 1000.5 |
| 20260506062053 | 76 | 185 | 5.2 | 10.4 | 0.00 | 0.04 | 0.00 | 93 | 1000.6 |
| 20260506061952 | 76 | 192 | 5.2 | 10.4 | 0.00 | 0.04 | 0.00 | 93 | 1000.6 |
| 20260506061852 | 76 | 172 | 5.2 | 10.4 | 0.00 | 0.04 | 0.00 | 93 | 1000.6 |
| 20260506061751 | 76 | 164 | 5.2 | 10.4 | 0.00 | 0.04 | 0.00 | 93 | 1000.6 |
| 20260506061652 | 76 | 185 | 6.1 | 10.4 | 0.00 | 0.04 | 0.00 | 93 | 1000.6 |
| 20260506061551 | 76 | 168 | 7.0 | 11.3 | 0.00 | 0.04 | 0.00 | 93 | 1000.5 |
| 20260506061451 | 76 | 186 | 7.0 | 11.3 | 0.00 | 0.04 | 0.00 | 93 | 1000.6 |
| 20260506061352 | 76 | 168 | 6.1 | 11.3 | 0.00 | 0.04 | 0.00 | 93 | 1000.6 |
| 20260506061251 | 76 | 165 | 6.1 | 11.3 | 0.00 | 0.04 | 0.00 | 93 | 1000.6 |
| 20260506061151 | 76 | 172 | 6.1 | 11.3 | 0.00 | 0.04 | 0.00 | 93 | 1000.5 |
| 20260506061051 | 76 | 179 | 6.1 | 11.3 | 0.00 | 0.04 | 0.00 | 93 | 1000.5 |
| 20260506060952 | 76 | 171 | 6.1 | 11.3 | 0.00 | 0.04 | 0.00 | 93 | 1000.5 |
| 20260506060851 | 76 | 169 | 7.0 | 11.3 | 0.00 | 0.04 | 0.00 | 93 | 1000.5 |
| 20260506060751 | 76 | 182 | 7.8 | 11.3 | 0.00 | 0.04 | 0.00 | 93 | 1000.5 |
| 20260506060653 | 76 | 172 | 7.8 | 11.3 | 0.00 | 0.04 | 0.00 | 93 | 1000.4 |
| 20260506060551 | 76 | 161 | 7.0 | 11.3 | 0.00 | 0.04 | 0.00 | 93 | 1000.5 |
| 20260506060451 | 76 | 172 | 5.2 | 10.4 | 0.00 | 0.04 | 0.00 | 93 | 1000.5 |
| 20260506060352 | 76 | 171 | 5.2 | 10.4 | 0.00 | 0.04 | 0.00 | 93 | 1000.4 |
| 20260506060252 | 76 | 164 | 5.2 | 10.4 | 0.00 | 0.04 | 0.00 | 93 | 1000.5 |
| 20260506060151 | 77 | 165 | 6.1 | 10.4 | 0.00 | 0.04 | 0.00 | 93 | 1000.4 |
| 20260506051350 | 77 | 173 | 7.8 | 13.0 | 0.00 | 0.05 | 0.00 | 92 | 1000.3 |
| 20260506051250 | 77 | 151 | 8.7 | 13.0 | 0.00 | 0.05 | 0.00 | 92 | 1000.3 |
| 20260506051152 | 77 | 173 | 8.7 | 13.0 | 0.00 | 0.05 | 0.00 | 92 | 1000.3 |
| 20260506051051 | 77 | 175 | 8.7 | 13.0 | 0.00 | 0.05 | 0.00 | 92 | 1000.4 |
| 20260506050949 | 77 | 171 | 8.7 | 13.0 | 0.00 | 0.05 | 0.00 | 91 | 1000.4 |
| 20260506050850 | 77 | 165 | 7.8 | 13.9 | 0.00 | 0.05 | 0.00 | 91 | 1000.3 |
| 20260506050751 | 77 | 179 | 8.7 | 13.9 | 0.00 | 0.05 | 0.00 | 91 | 1000.4 |
| 20260506050649 | 77 | 141 | 8.7 | 13.9 | 0.00 | 0.05 | 0.00 | 91 | 1000.5 |
| 20260506050548 | 77 | 166 | 7.8 | 13.9 | 0.00 | 0.05 | 0.00 | 91 | 1000.5 |
| 20260506050445 | 77 | 164 | 8.7 | 13.9 | 0.00 | 0.05 | 0.00 | 91 | 1000.5 |
| 20260506050344 | 77 | 172 | 7.8 | 13.9 | 0.00 | 0.05 | 0.00 | 91 | 1000.5 |
| 20260506050244 | 77 | 179 | 7.8 | 13.9 | 0.00 | 0.05 | 0.00 | 91 | 1000.4 |
| 20260506050142 | 77 | 161 | 7.8 | 13.9 | 0.00 | 0.05 | 0.00 | 91 | 1000.4 |
| 20260506045131 | 77 | 165 | 7.0 | 10.4 | 0.00 | 0.05 | 0.05 | 91 | 1000.5 |
| 20260506045031 | 77 | 164 | 5.2 | 10.4 | 0.00 | 0.05 | 0.05 | 91 | 1000.5 |
| 20260506044931 | 77 | 161 | 5.2 | 10.4 | 0.00 | 0.05 | 0.05 | 91 | 1000.5 |
| 20260506044833 | 77 | 182 | 5.2 | 10.4 | 0.00 | 0.05 | 0.05 | 91 | 1000.5 |
| 20260506044732 | 77 | 179 | 5.2 | 11.3 | 0.00 | 0.05 | 0.05 | 91 | 1000.5 |
| 20260506044631 | 77 | 192 | 6.1 | 11.3 | 0.00 | 0.05 | 0.05 | 91 | 1000.5 |
| 20260506044532 | 77 | 166 | 6.1 | 11.3 | 0.00 | 0.05 | 0.05 | 91 | 1000.6 |
| 20260506044433 | 77 | 178 | 6.1 | 12.2 | 0.00 | 0.05 | 0.05 | 91 | 1000.5 |
| 20260506044331 | 77 | 182 | 7.0 | 13.0 | 0.00 | 0.05 | 0.05 | 91 | 1000.4 |
| 20260506044231 | 77 | 165 | 7.8 | 13.0 | 0.00 | 0.05 | 0.05 | 91 | 1000.4 |
| 20260506044132 | 77 | 180 | 7.8 | 13.0 | 0.00 | 0.05 | 0.05 | 91 | 1000.5 |
| 20260506044030 | 77 | 183 | 8.7 | 13.0 | 0.00 | 0.05 | 0.05 | 91 | 1000.4 |
| 20260506043931 | 77 | 171 | 7.8 | 13.0 | 0.00 | 0.05 | 0.05 | 91 | 1000.4 |
| 20260506043830 | 77 | 161 | 7.0 | 13.0 | 0.00 | 0.05 | 0.05 | 91 | 1000.4 |
| 20260506043731 | 77 | 166 | 7.8 | 13.0 | 0.00 | 0.05 | 0.05 | 91 | 1000.4 |
| 20260506043631 | 77 | 164 | 7.0 | 13.0 | 0.00 | 0.05 | 0.05 | 91 | 1000.4 |
| 20260506043532 | 77 | 178 | 7.8 | 13.0 | 0.00 | 0.05 | 0.05 | 91 | 1000.4 |
| 20260506043432 | 77 | 192 | 7.0 | 13.0 | 0.00 | 0.05 | 0.05 | 91 | 1000.4 |
| 20260506043332 | 77 | 173 | 6.1 | 13.0 | 0.00 | 0.05 | 0.05 | 91 | 1000.3 |
| 20260506043232 | 77 | 180 | 7.0 | 13.0 | 0.00 | 0.05 | 0.05 | 90 | 1000.4 |
| 20260506043133 | 77 | 176 | 7.8 | 13.0 | 0.00 | 0.05 | 0.05 | 90 | 1000.5 |
| 20260506043031 | 77 | 164 | 7.8 | 13.0 | 0.00 | 0.05 | 0.05 | 90 | 1000.5 |
| 20260506042929 | 77 | 161 | 7.8 | 13.0 | 0.00 | 0.05 | 0.05 | 90 | 1000.5 |
| 20260506042828 | 77 | 169 | 7.0 | 13.0 | 0.00 | 0.05 | 0.05 | 90 | 1000.4 |
| 20260506042726 | 77 | 172 | 7.8 | 13.0 | 0.00 | 0.05 | 0.05 | 90 | 1000.4 |
| 20260506042624 | 77 | 179 | 8.7 | 13.0 | 0.00 | 0.05 | 0.05 | 90 | 1000.4 |
| 20260506042524 | 77 | 188 | 9.6 | 13.0 | 0.00 | 0.05 | 0.05 | 90 | 1000.3 |
| 20260506042422 | 77 | 154 | 7.8 | 13.0 | 0.00 | 0.05 | 0.05 | 90 | 1000.3 |
| 20260506042321 | 77 | 171 | 5.2 | 13.0 | 0.00 | 0.05 | 0.05 | 90 | 1000.2 |
| 20260506042220 | 77 | 165 | 7.0 | 13.0 | 0.00 | 0.05 | 0.05 | 90 | 1000.2 |
| 20260506042118 | 77 | 189 | 7.8 | 13.0 | 0.00 | 0.05 | 0.05 | 90 | 1000.3 |
| 20260506042016 | 77 | 172 | 8.7 | 13.0 | 0.00 | 0.05 | 0.05 | 90 | 1000.4 |
| 20260506041915 | 77 | 179 | 7.8 | 10.4 | 0.00 | 0.05 | 0.05 | 90 | 1000.3 |
| 20260506041813 | 77 | 158 | 6.1 | 10.4 | 0.00 | 0.05 | 0.05 | 90 | 1000.3 |
| 20260506041712 | 77 | 165 | 7.0 | 10.4 | 0.00 | 0.05 | 0.05 | 90 | 1000.4 |
| 20260506041610 | 77 | 157 | 5.2 | 10.4 | 0.00 | 0.05 | 0.05 | 90 | 1000.4 |
| 20260506041508 | 77 | 183 | 4.3 | 9.6 | 0.00 | 0.05 | 0.05 | 90 | 1000.4 |
| 20260506041407 | 77 | 172 | 4.3 | 9.6 | 0.00 | 0.05 | 0.05 | 90 | 1000.4 |
| 20260506041304 | 77 | 188 | 5.2 | 9.6 | 0.00 | 0.05 | 0.05 | 90 | 1000.5 |
| 20260506041203 | 77 | 172 | 6.1 | 10.4 | 0.00 | 0.05 | 0.05 | 90 | 1000.6 |
| 20260506041103 | 77 | 189 | 6.1 | 10.4 | 0.00 | 0.05 | 0.05 | 90 | 1000.7 |
| 20260506041003 | 77 | 158 | 6.1 | 10.4 | 0.00 | 0.05 | 0.05 | 90 | 1000.6 |
| 20260506040902 | 77 | 196 | 5.2 | 10.4 | 0.00 | 0.05 | 0.05 | 90 | 1000.7 |
| 20260506040803 | 77 | 202 | 4.3 | 10.4 | 0.00 | 0.05 | 0.05 | 90 | 1000.5 |
| 20260506040702 | 77 | 190 | 4.3 | 10.4 | 0.00 | 0.05 | 0.05 | 90 | 1000.5 |
| 20260506040600 | 77 | 179 | 5.2 | 10.4 | 0.00 | 0.05 | 0.05 | 90 | 1000.6 |
| 20260506040455 | 77 | 200 | 5.2 | 10.4 | 0.00 | 0.05 | 0.05 | 90 | 1000.6 |
| 20260506040354 | 77 | 183 | 6.1 | 10.4 | 0.00 | 0.05 | 0.05 | 90 | 1000.5 |
| 20260506040252 | 77 | 209 | 6.1 | 12.2 | 0.00 | 0.05 | 0.05 | 90 | 1000.5 |
| 20260506040151 | 77 | 192 | 6.1 | 12.2 | 0.00 | 0.05 | 0.05 | 90 | 1000.4 |
| 20260506040050 | 77 | 192 | 6.1 | 12.2 | 0.00 | 0.05 | 0.05 | 90 | 1000.4 |
| 20260506035948 | 77 | 188 | 6.1 | 12.2 | 0.00 | 0.05 | 0.05 | 90 | 1000.3 |
| 20260506035849 | 77 | 180 | 7.0 | 12.2 | 0.00 | 0.05 | 0.05 | 90 | 1000.3 |
| 20260506035748 | 78 | 190 | 7.0 | 12.2 | 0.00 | 0.05 | 0.05 | 90 | 1000.3 |
| 20260506035648 | 77 | 186 | 6.1 | 12.2 | 0.00 | 0.05 | 0.05 | 90 | 1000.4 |
| 20260506035548 | 77 | 169 | 6.1 | 12.2 | 0.00 | 0.05 | 0.05 | 90 | 1000.4 |
| 20260506035450 | 77 | 197 | 7.0 | 12.2 | 0.00 | 0.05 | 0.05 | 90 | 1000.4 |
| 20260506035348 | 77 | 188 | 7.0 | 12.2 | 0.00 | 0.05 | 0.05 | 90 | 1000.4 |
| 20260506035247 | 78 | 192 | 6.1 | 10.4 | 0.00 | 0.05 | 0.05 | 90 | 1000.5 |
| 20260506035149 | 78 | 178 | 7.0 | 10.4 | 0.00 | 0.05 | 0.05 | 90 | 1000.4 |
| 20260506035048 | 78 | 159 | 6.1 | 10.4 | 0.00 | 0.05 | 0.05 | 90 | 1000.4 |
| 20260506034948 | 78 | 196 | 4.3 | 10.4 | 0.00 | 0.05 | 0.05 | 90 | 1000.3 |
| 20260506034848 | 78 | 180 | 4.3 | 10.4 | 0.00 | 0.05 | 0.05 | 90 | 1000.3 |
| 20260506034749 | 78 | 166 | 5.2 | 10.4 | 0.00 | 0.05 | 0.05 | 90 | 1000.2 |
| 20260506034649 | 78 | 190 | 6.1 | 10.4 | 0.00 | 0.05 | 0.05 | 90 | 1000.2 |
| 20260506034548 | 78 | 203 | 7.0 | 10.4 | 0.00 | 0.05 | 0.05 | 90 | 1000.2 |
| 20260506034449 | 78 | 209 | 6.1 | 11.3 | 0.00 | 0.05 | 0.05 | 90 | 1000.3 |
| 20260506034348 | 78 | 178 | 4.3 | 11.3 | 0.00 | 0.05 | 0.05 | 90 | 1000.2 |
| 20260506034248 | 78 | 186 | 5.2 | 11.3 | 0.00 | 0.05 | 0.05 | 90 | 1000.2 |
| 20260506034147 | 78 | 182 | 6.1 | 11.3 | 0.00 | 0.05 | 0.05 | 90 | 1000.2 |
| 20260506034049 | 78 | 180 | 7.0 | 11.3 | 0.00 | 0.05 | 0.05 | 89 | 1000.2 |
| 20260506033947 | 78 | 180 | 7.8 | 11.3 | 0.00 | 0.05 | 0.05 | 89 | 1000.1 |
| 20260506033848 | 78 | 186 | 7.8 | 11.3 | 0.00 | 0.05 | 0.05 | 89 | 1000.1 |
| 20260506033748 | 78 | 175 | 7.0 | 11.3 | 0.00 | 0.06 | 0.05 | 89 | 1000.2 |
| 20260506033648 | 78 | 193 | 6.1 | 11.3 | 0.00 | 0.06 | 0.05 | 89 | 1000.1 |
| 20260506033547 | 78 | 200 | 5.2 | 11.3 | 0.00 | 0.06 | 0.05 | 89 | 1000.1 |
| 20260506033447 | 78 | 193 | 5.2 | 11.3 | 0.00 | 0.06 | 0.05 | 89 | 1000.1 |
| 20260506033349 | 78 | 188 | 7.0 | 11.3 | 0.00 | 0.06 | 0.05 | 89 | 1000.0 |
| 20260506033247 | 78 | 186 | 7.0 | 11.3 | 0.00 | 0.06 | 0.05 | 89 | 1000.0 |
| 20260506033147 | 78 | 193 | 6.1 | 11.3 | 0.00 | 0.06 | 0.05 | 89 | 1000.0 |
| 20260506033049 | 78 | 207 | 7.0 | 11.3 | 0.00 | 0.06 | 0.05 | 89 | 1000.0 |
| 20260506032947 | 78 | 179 | 7.0 | 11.3 | 0.00 | 0.06 | 0.05 | 89 | 1000.0 |
| 20260506032848 | 78 | 180 | 7.0 | 11.3 | 0.00 | 0.06 | 0.05 | 89 | 1000.0 |
| 20260506032747 | 78 | 213 | 7.0 | 11.3 | 0.00 | 0.06 | 0.05 | 89 | 1000.0 |
| 20260506032649 | 78 | 207 | 6.1 | 12.2 | 0.00 | 0.06 | 0.05 | 89 | 999.9 |
| 20260506032547 | 78 | 182 | 6.1 | 12.2 | 0.00 | 0.06 | 0.05 | 89 | 1000.0 |
| 20260506032448 | 78 | 188 | 7.0 | 13.0 | 0.00 | 0.06 | 0.05 | 89 | 1000.0 |
| 20260506032348 | 78 | 180 | 7.8 | 13.0 | 0.00 | 0.06 | 0.05 | 89 | 1000.0 |
| 20260506032248 | 78 | 172 | 7.0 | 13.0 | 0.00 | 0.06 | 0.05 | 89 | 1000.0 |
| 20260506032149 | 78 | 172 | 7.0 | 13.0 | 0.00 | 0.06 | 0.05 | 89 | 1000.1 |
| 20260506032048 | 78 | 172 | 7.0 | 13.0 | 0.00 | 0.06 | 0.05 | 89 | 1000.0 |
| 20260506031948 | 78 | 180 | 7.0 | 13.0 | 0.00 | 0.06 | 0.05 | 89 | 1000.1 |
| 20260506031847 | 78 | 195 | 7.8 | 13.0 | 0.00 | 0.06 | 0.05 | 89 | 1000.1 |
| 20260506031747 | 78 | 190 | 7.8 | 13.0 | 0.00 | 0.06 | 0.05 | 89 | 1000.1 |
| 20260506031649 | 78 | 186 | 7.8 | 13.0 | 0.00 | 0.06 | 0.05 | 89 | 1000.2 |
| 20260506031547 | 78 | 180 | 6.1 | 13.0 | 0.00 | 0.06 | 0.05 | 89 | 1000.1 |
| 20260506031447 | 78 | 188 | 5.2 | 10.4 | 0.00 | 0.06 | 0.05 | 89 | 1000.1 |
| 20260506031347 | 78 | 182 | 7.0 | 10.4 | 0.00 | 0.06 | 0.05 | 89 | 1000.2 |
| 20260506031248 | 78 | 179 | 6.1 | 10.4 | 0.00 | 0.06 | 0.05 | 89 | 1000.1 |
| 20260506031147 | 78 | 195 | 6.1 | 10.4 | 0.00 | 0.06 | 0.05 | 88 | 1000.0 |
| 20260506031047 | 78 | 193 | 6.1 | 10.4 | 0.00 | 0.06 | 0.05 | 88 | 1000.0 |
| 20260506030949 | 78 | 192 | 6.1 | 10.4 | 0.00 | 0.06 | 0.05 | 88 | 1000.0 |
| 20260506030847 | 78 | 189 | 6.1 | 10.4 | 0.00 | 0.06 | 0.05 | 88 | 1000.0 |
| 20260506030747 | 78 | 196 | 6.1 | 10.4 | 0.00 | 0.06 | 0.05 | 88 | 999.9 |
| 20260506030649 | 78 | 188 | 5.2 | 10.4 | 0.00 | 0.06 | 0.05 | 88 | 1000.0 |
| 20260506030547 | 78 | 197 | 7.0 | 10.4 | 0.00 | 0.06 | 0.05 | 88 | 999.9 |
| 20260506030447 | 78 | 182 | 7.0 | 10.4 | 0.00 | 0.06 | 0.05 | 88 | 999.9 |
| 20260506030347 | 78 | 188 | 6.1 | 12.2 | 0.00 | 0.06 | 0.05 | 88 | 999.9 |
| 20260506030248 | 78 | 165 | 7.0 | 12.2 | 0.00 | 0.06 | 0.05 | 88 | 999.8 |
| 20260506030147 | 78 | 178 | 6.1 | 12.2 | 0.00 | 0.06 | 0.05 | 88 | 999.7 |
| 20260506030047 | 78 | 176 | 6.1 | 13.0 | 0.00 | 0.06 | 0.05 | 88 | 999.8 |
| 20260506025948 | 78 | 180 | 6.1 | 13.0 | 0.00 | 0.06 | 0.05 | 88 | 999.8 |
| 20260506025847 | 78 | 197 | 6.1 | 13.0 | 0.00 | 0.06 | 0.05 | 88 | 999.9 |
| 20260506025747 | 78 | 179 | 6.1 | 13.0 | 0.00 | 0.06 | 0.05 | 88 | 999.8 |
| 20260506025646 | 78 | 183 | 6.1 | 13.0 | 0.00 | 0.06 | 0.05 | 88 | 999.8 |
| 20260506025548 | 78 | 189 | 7.0 | 13.0 | 0.00 | 0.06 | 0.05 | 88 | 999.7 |
| 20260506025447 | 78 | 193 | 7.8 | 13.0 | 0.00 | 0.06 | 0.05 | 88 | 999.8 |
| 20260506025346 | 78 | 180 | 7.8 | 13.0 | 0.00 | 0.06 | 0.05 | 88 | 999.7 |
| 20260506025247 | 78 | 173 | 7.8 | 13.0 | 0.00 | 0.06 | 0.05 | 88 | 999.7 |
| 20260506025148 | 78 | 166 | 7.0 | 13.0 | 0.00 | 0.06 | 0.05 | 88 | 999.7 |
| 20260506025046 | 78 | 185 | 7.0 | 11.3 | 0.00 | 0.06 | 0.05 | 88 | 999.7 |
| 20260506024947 | 78 | 176 | 7.8 | 11.3 | 0.00 | 0.06 | 0.05 | 88 | 999.7 |
| 20260506024848 | 78 | 192 | 7.8 | 11.3 | 0.00 | 0.06 | 0.05 | 88 | 999.7 |
| 20260506024746 | 78 | 188 | 7.0 | 11.3 | 0.00 | 0.06 | 0.05 | 88 | 999.6 |
| 20260506024646 | 78 | 195 | 7.0 | 10.4 | 0.00 | 0.06 | 0.05 | 88 | 999.6 |
| 20260506024547 | 78 | 196 | 7.0 | 10.4 | 0.00 | 0.06 | 0.05 | 88 | 999.7 |
| 20260506024446 | 78 | 213 | 7.0 | 10.4 | 0.00 | 0.06 | 0.05 | 88 | 999.6 |
| 20260506024346 | 78 | 196 | 6.1 | 10.4 | 0.00 | 0.06 | 0.05 | 88 | 999.7 |
| 20260506024246 | 78 | 180 | 6.1 | 10.4 | 0.00 | 0.06 | 0.05 | 87 | 999.7 |
| 20260506024147 | 78 | 186 | 6.1 | 10.4 | 0.00 | 0.06 | 0.05 | 87 | 999.7 |
| 20260506024046 | 78 | 196 | 5.2 | 10.4 | 0.00 | 0.06 | 0.05 | 87 | 999.7 |
| 20260506023947 | 78 | 192 | 5.2 | 11.3 | 0.00 | 0.06 | 0.05 | 87 | 999.6 |
| 20260506023848 | 78 | 182 | 6.1 | 11.3 | 0.00 | 0.06 | 0.05 | 87 | 999.6 |
| 20260506023746 | 78 | 179 | 6.1 | 11.3 | 0.00 | 0.06 | 0.05 | 87 | 999.6 |
| 20260506023646 | 78 | 182 | 7.0 | 11.3 | 0.00 | 0.06 | 0.05 | 87 | 999.5 |
| 20260506023546 | 78 | 164 | 7.0 | 11.3 | 0.00 | 0.06 | 0.05 | 87 | 999.5 |
| 20260506023447 | 78 | 151 | 7.0 | 11.3 | 0.00 | 0.06 | 0.05 | 87 | 999.5 |
| 20260506023346 | 78 | 188 | 7.0 | 11.3 | 0.00 | 0.06 | 0.05 | 87 | 999.4 |
| 20260506023246 | 78 | 189 | 6.1 | 11.3 | 0.00 | 0.06 | 0.05 | 87 | 999.3 |
| 20260506023147 | 78 | 186 | 7.8 | 11.3 | 0.00 | 0.06 | 0.05 | 87 | 999.3 |
| 20260506023046 | 78 | 159 | 7.8 | 11.3 | 0.00 | 0.06 | 0.05 | 87 | 999.2 |
| 20260506022946 | 78 | 173 | 6.1 | 11.3 | 0.00 | 0.06 | 0.05 | 87 | 999.2 |
| 20260506022846 | 78 | 173 | 7.0 | 11.3 | 0.00 | 0.06 | 0.05 | 87 | 999.2 |
| 20260506022747 | 78 | 169 | 7.0 | 11.3 | 0.00 | 0.06 | 0.05 | 87 | 999.2 |
| 20260506022646 | 78 | 206 | 7.0 | 11.3 | 0.00 | 0.06 | 0.05 | 87 | 999.1 |
| 20260506022546 | 78 | 161 | 7.8 | 12.2 | 0.00 | 0.06 | 0.05 | 87 | 999.1 |
| 20260506022447 | 78 | 178 | 7.0 | 12.2 | 0.00 | 0.06 | 0.05 | 87 | 999.1 |
| 20260506022345 | 78 | 175 | 7.0 | 12.2 | 0.00 | 0.06 | 0.05 | 86 | 999.1 |
| 20260506022246 | 78 | 197 | 6.1 | 12.2 | 0.00 | 0.06 | 0.05 | 86 | 999.1 |
| 20260506022147 | 78 | 193 | 7.0 | 12.2 | 0.00 | 0.06 | 0.05 | 86 | 999.0 |
| 20260506022047 | 78 | 166 | 7.0 | 12.2 | 0.00 | 0.06 | 0.05 | 86 | 999.1 |
| 20260506021946 | 78 | 158 | 6.1 | 12.2 | 0.00 | 0.06 | 0.05 | 86 | 999.1 |
| 20260506021845 | 78 | 180 | 7.0 | 12.2 | 0.00 | 0.06 | 0.05 | 86 | 999.0 |
| 20260506021747 | 78 | 172 | 7.0 | 12.2 | 0.00 | 0.06 | 0.05 | 86 | 999.0 |
| 20260506021646 | 79 | 186 | 6.1 | 12.2 | 0.00 | 0.06 | 0.05 | 86 | 999.0 |
| 20260506021547 | 79 | 149 | 7.8 | 12.2 | 0.00 | 0.06 | 0.05 | 86 | 999.0 |
| 20260506021447 | 78 | 188 | 8.7 | 12.2 | 0.00 | 0.06 | 0.05 | 86 | 999.0 |
| 20260506021346 | 78 | 166 | 7.8 | 12.2 | 0.00 | 0.06 | 0.05 | 86 | 999.0 |
| 20260506021246 | 78 | 166 | 7.0 | 12.2 | 0.00 | 0.06 | 0.05 | 86 | 999.1 |
| 20260506021145 | 78 | 152 | 7.8 | 13.0 | 0.00 | 0.06 | 0.05 | 86 | 999.0 |
| 20260506021047 | 78 | 196 | 7.0 | 13.0 | 0.00 | 0.06 | 0.05 | 86 | 999.1 |
| 20260506020946 | 78 | 165 | 5.2 | 13.0 | 0.00 | 0.06 | 0.05 | 86 | 999.1 |
| 20260506020846 | 78 | 166 | 5.2 | 16.5 | 0.00 | 0.06 | 0.05 | 86 | 999.0 |
| 20260506020745 | 79 | 171 | 6.1 | 16.5 | 0.00 | 0.06 | 0.05 | 86 | 999.0 |
| 20260506020647 | 78 | 161 | 5.2 | 16.5 | 0.00 | 0.06 | 0.05 | 86 | 998.9 |
| 20260506020545 | 78 | 206 | 5.2 | 16.5 | 0.00 | 0.06 | 0.05 | 86 | 998.9 |
| 20260506020446 | 78 | 193 | 6.1 | 16.5 | 0.00 | 0.06 | 0.05 | 86 | 998.9 |
| 20260506020346 | 78 | 199 | 7.0 | 16.5 | 0.00 | 0.06 | 0.05 | 86 | 998.9 |
| 20260506020246 | 78 | 173 | 7.0 | 16.5 | 0.00 | 0.06 | 0.05 | 86 | 998.9 |
| 20260506020145 | 78 | 183 | 7.8 | 16.5 | 0.00 | 0.06 | 0.05 | 86 | 998.9 |
| 20260506020046 | 78 | 179 | 9.6 | 16.5 | 0.00 | 0.06 | 0.05 | 86 | 998.8 |
| 20260506015945 | 78 | 180 | 9.6 | 16.5 | 0.00 | 0.06 | 0.05 | 86 | 998.9 |
| 20260506015846 | 78 | 189 | 9.6 | 14.8 | 0.00 | 0.06 | 0.05 | 86 | 998.9 |
| 20260506015746 | 78 | 195 | 8.7 | 13.9 | 0.00 | 0.06 | 0.05 | 86 | 998.8 |
| 20260506015646 | 78 | 189 | 7.0 | 13.9 | 0.00 | 0.06 | 0.05 | 86 | 998.8 |
| 20260506015545 | 78 | 210 | 6.1 | 13.9 | 0.00 | 0.06 | 0.05 | 86 | 998.7 |
| 20260506015445 | 78 | 168 | 7.8 | 13.9 | 0.00 | 0.06 | 0.05 | 86 | 998.7 |
| 20260506015347 | 78 | 176 | 8.7 | 13.9 | 0.00 | 0.06 | 0.05 | 86 | 998.7 |
| 20260506015245 | 78 | 182 | 7.8 | 13.9 | 0.00 | 0.06 | 0.05 | 86 | 998.8 |
| 20260506015145 | 78 | 164 | 6.1 | 10.4 | 0.00 | 0.06 | 0.05 | 86 | 998.7 |
| 20260506015045 | 78 | 154 | 7.0 | 10.4 | 0.00 | 0.06 | 0.05 | 86 | 998.7 |
| 20260506014946 | 78 | 176 | 7.0 | 10.4 | 0.00 | 0.06 | 0.05 | 86 | 998.7 |
| 20260506014846 | 78 | 190 | 7.0 | 10.4 | 0.00 | 0.06 | 0.05 | 86 | 998.6 |
| 20260506014745 | 79 | 190 | 7.0 | 10.4 | 0.00 | 0.06 | 0.05 | 86 | 998.6 |
| 20260506014646 | 79 | 175 | 7.0 | 10.4 | 0.00 | 0.06 | 0.05 | 86 | 998.7 |
| 20260506014545 | 79 | 182 | 6.1 | 10.4 | 0.00 | 0.06 | 0.05 | 86 | 998.6 |
| 20260506014445 | 79 | 185 | 6.1 | 10.4 | 0.00 | 0.06 | 0.05 | 86 | 998.6 |
| 20260506014345 | 79 | 185 | 7.0 | 10.4 | 0.00 | 0.06 | 0.05 | 86 | 998.6 |
| 20260506014246 | 79 | 180 | 6.1 | 9.6 | 0.00 | 0.06 | 0.05 | 86 | 998.6 |
| 20260506014145 | 79 | 193 | 6.1 | 9.6 | 0.00 | 0.06 | 0.05 | 86 | 998.6 |
| 20260506014046 | 79 | 214 | 6.1 | 9.6 | 0.00 | 0.06 | 0.05 | 86 | 998.6 |
| 20260506013946 | 79 | 197 | 6.1 | 9.6 | 0.00 | 0.06 | 0.05 | 86 | 998.6 |
| 20260506013845 | 79 | 221 | 6.1 | 9.6 | 0.00 | 0.06 | 0.05 | 86 | 998.6 |
| 20260506013745 | 79 | 200 | 6.1 | 9.6 | 0.00 | 0.07 | 0.05 | 86 | 998.6 |
| 20260506013644 | 79 | 204 | 5.2 | 9.6 | 0.00 | 0.07 | 0.05 | 85 | 998.6 |
| 20260506013546 | 79 | 200 | 6.1 | 10.4 | 0.00 | 0.07 | 0.05 | 85 | 998.6 |
| 20260506013445 | 79 | 200 | 6.1 | 10.4 | 0.00 | 0.07 | 0.05 | 85 | 998.6 |
| 20260506013345 | 79 | 213 | 5.2 | 10.4 | 0.00 | 0.07 | 0.05 | 85 | 998.7 |
| 20260506013246 | 79 | 223 | 4.3 | 11.3 | 0.00 | 0.07 | 0.05 | 85 | 998.6 |
| 20260506013145 | 79 | 216 | 4.3 | 11.3 | 0.00 | 0.07 | 0.05 | 85 | 998.6 |
| 20260506013045 | 79 | 202 | 5.2 | 11.3 | 0.00 | 0.07 | 0.05 | 85 | 998.6 |
| 20260506012947 | 79 | 193 | 5.2 | 11.3 | 0.00 | 0.07 | 0.05 | 85 | 998.6 |
| 20260506012846 | 79 | 196 | 5.2 | 11.3 | 0.00 | 0.07 | 0.05 | 85 | 998.6 |
| 20260506012745 | 79 | 179 | 7.0 | 11.3 | 0.00 | 0.07 | 0.05 | 85 | 998.7 |
| 20260506012644 | 79 | 213 | 7.0 | 11.3 | 0.00 | 0.07 | 0.05 | 85 | 998.6 |
| 20260506012546 | 79 | 220 | 6.1 | 11.3 | 0.00 | 0.07 | 0.05 | 85 | 998.6 |
| 20260506012445 | 79 | 189 | 6.1 | 11.3 | 0.00 | 0.07 | 0.05 | 85 | 998.6 |
| 20260506012344 | 79 | 179 | 7.0 | 11.3 | 0.00 | 0.07 | 0.05 | 85 | 998.5 |
| 20260506012244 | 79 | 182 | 7.0 | 11.3 | 0.00 | 0.07 | 0.05 | 85 | 998.5 |
| 20260506012146 | 79 | 195 | 7.0 | 11.3 | 0.00 | 0.07 | 0.05 | 85 | 998.4 |
| 20260506012045 | 79 | 195 | 6.1 | 11.3 | 0.00 | 0.07 | 0.05 | 85 | 998.4 |
| 20260506011944 | 79 | 202 | 7.0 | 11.3 | 0.00 | 0.07 | 0.05 | 85 | 998.4 |
| 20260506011846 | 79 | 190 | 7.0 | 11.3 | 0.00 | 0.07 | 0.05 | 85 | 998.5 |
| 20260506011745 | 79 | 169 | 7.0 | 10.4 | 0.00 | 0.07 | 0.05 | 85 | 998.3 |
| 20260506011644 | 79 | 182 | 6.1 | 11.3 | 0.00 | 0.07 | 0.05 | 85 | 998.4 |
| 20260506011544 | 79 | 186 | 5.2 | 11.3 | 0.00 | 0.07 | 0.05 | 85 | 998.4 |
| 20260506011445 | 79 | 196 | 5.2 | 11.3 | 0.00 | 0.07 | 0.05 | 85 | 998.3 |
| 20260506011345 | 79 | 179 | 5.2 | 11.3 | 0.00 | 0.07 | 0.05 | 85 | 998.2 |
| 20260506011245 | 79 | 179 | 5.2 | 11.3 | 0.00 | 0.07 | 0.05 | 85 | 998.2 |
| 20260506011145 | 79 | 180 | 6.1 | 11.3 | 0.00 | 0.07 | 0.05 | 85 | 998.3 |
| 20260506011045 | 79 | 199 | 5.2 | 11.3 | 0.00 | 0.07 | 0.05 | 85 | 998.3 |
| 20260506010944 | 79 | 197 | 5.2 | 11.3 | 0.00 | 0.07 | 0.05 | 85 | 998.3 |
| 20260506010844 | 79 | 185 | 7.0 | 11.3 | 0.00 | 0.07 | 0.05 | 85 | 998.3 |
| 20260506010745 | 79 | 168 | 7.8 | 11.3 | 0.00 | 0.07 | 0.05 | 85 | 998.3 |
| 20260506010644 | 79 | 195 | 7.8 | 11.3 | 0.00 | 0.07 | 0.05 | 84 | 998.3 |
| 20260506010544 | 79 | 158 | 7.8 | 11.3 | 0.00 | 0.07 | 0.05 | 84 | 998.3 |
| 20260506010444 | 79 | 188 | 7.0 | 10.4 | 0.00 | 0.07 | 0.05 | 84 | 998.3 |
| 20260506010344 | 79 | 190 | 6.1 | 9.6 | 0.00 | 0.07 | 0.05 | 84 | 998.2 |
| 20260506010244 | 79 | 209 | 7.0 | 9.6 | 0.00 | 0.07 | 0.05 | 84 | 998.2 |
| 20260506010145 | 79 | 196 | 6.1 | 11.3 | 0.00 | 0.07 | 0.05 | 84 | 998.2 |
| 20260506010046 | 79 | 195 | 5.2 | 11.3 | 0.00 | 0.07 | 0.05 | 84 | 998.2 |
| 20260506005944 | 79 | 188 | 6.1 | 11.3 | 0.00 | 0.07 | 0.05 | 84 | 998.2 |
| 20260506005844 | 79 | 182 | 7.0 | 11.3 | 0.00 | 0.07 | 0.05 | 84 | 998.3 |
| 20260506005745 | 79 | 185 | 6.1 | 11.3 | 0.00 | 0.07 | 0.05 | 84 | 998.2 |
| 20260506005644 | 79 | 199 | 6.1 | 11.3 | 0.00 | 0.07 | 0.05 | 84 | 998.3 |
| 20260506005544 | 79 | 185 | 7.0 | 11.3 | 0.00 | 0.07 | 0.05 | 84 | 998.1 |
| 20260506005445 | 80 | 176 | 6.1 | 13.9 | 0.00 | 0.07 | 0.05 | 84 | 998.1 |
| 20260506005344 | 79 | 193 | 7.0 | 13.9 | 0.00 | 0.07 | 0.05 | 84 | 998.1 |
| 20260506005244 | 79 | 183 | 7.0 | 13.9 | 0.00 | 0.07 | 0.05 | 84 | 998.1 |
| 20260506005144 | 79 | 179 | 7.0 | 13.9 | 0.00 | 0.07 | 0.05 | 84 | 998.1 |
| 20260506005045 | 80 | 178 | 7.8 | 13.9 | 0.00 | 0.07 | 0.05 | 84 | 998.1 |
| 20260506004943 | 79 | 180 | 7.8 | 13.9 | 0.00 | 0.07 | 0.05 | 84 | 998.1 |
| 20260506004844 | 80 | 188 | 7.8 | 13.9 | 0.00 | 0.07 | 0.05 | 84 | 998.0 |
| 20260506004746 | 80 | 180 | 7.0 | 13.9 | 0.00 | 0.07 | 0.05 | 84 | 998.1 |
| 20260506004645 | 80 | 176 | 7.8 | 13.9 | 0.00 | 0.07 | 0.05 | 84 | 998.1 |
| 20260506004544 | 80 | 197 | 8.7 | 13.9 | 0.00 | 0.07 | 0.05 | 84 | 998.2 |
| 20260506004445 | 80 | 202 | 7.0 | 12.2 | 0.00 | 0.07 | 0.05 | 84 | 998.1 |
| 20260506004345 | 80 | 175 | 6.1 | 9.6 | 0.00 | 0.07 | 0.05 | 84 | 998.2 |
| 20260506004244 | 80 | 189 | 6.1 | 10.4 | 0.00 | 0.07 | 0.05 | 84 | 998.1 |
| 20260506004143 | 80 | 185 | 6.1 | 10.4 | 0.00 | 0.07 | 0.05 | 84 | 998.1 |
| 20260506004044 | 80 | 180 | 5.2 | 10.4 | 0.00 | 0.07 | 0.05 | 84 | 998.1 |
| 20260506003944 | 80 | 193 | 5.2 | 12.2 | 0.00 | 0.07 | 0.05 | 84 | 998.1 |
| 20260506003844 | 80 | 176 | 5.2 | 12.2 | 0.00 | 0.07 | 0.05 | 84 | 998.0 |
| 20260506003744 | 80 | 199 | 4.3 | 12.2 | 0.00 | 0.07 | 0.05 | 84 | 998.0 |
| 20260506003644 | 80 | 193 | 4.3 | 13.0 | 0.00 | 0.07 | 0.05 | 84 | 998.0 |
| 20260506003543 | 80 | 189 | 5.2 | 13.0 | 0.00 | 0.07 | 0.05 | 84 | 997.9 |
| 20260506003443 | 80 | 183 | 6.1 | 13.0 | 0.00 | 0.07 | 0.05 | 84 | 997.9 |
| 20260506003341 | 80 | 217 | 7.0 | 13.0 | 0.00 | 0.07 | 0.05 | 84 | 998.0 |
| 20260506003240 | 80 | 182 | 7.0 | 13.0 | 0.00 | 0.07 | 0.05 | 84 | 998.0 |
| 20260506003138 | 80 | 178 | 7.8 | 13.0 | 0.00 | 0.07 | 0.05 | 83 | 998.0 |
| 20260506003038 | 80 | 192 | 7.8 | 13.0 | 0.00 | 0.07 | 0.05 | 84 | 998.0 |
| 20260506002934 | 80 | 171 | 7.0 | 13.0 | 0.00 | 0.07 | 0.05 | 83 | 998.0 |
| 20260506002834 | 80 | 165 | 7.8 | 13.0 | 0.00 | 0.07 | 0.05 | 83 | 998.0 |
| 20260506002731 | 80 | 180 | 8.7 | 13.0 | 0.00 | 0.07 | 0.05 | 83 | 998.0 |
| 20260506002631 | 80 | 180 | 8.7 | 13.0 | 0.00 | 0.07 | 0.05 | 83 | 998.0 |
| 20260506002532 | 80 | 185 | 8.7 | 13.0 | 0.00 | 0.07 | 0.05 | 83 | 998.1 |
| 20260506002431 | 80 | 176 | 7.8 | 13.0 | 0.00 | 0.07 | 0.05 | 83 | 998.1 |
| 20260506002331 | 80 | 178 | 5.2 | 13.0 | 0.00 | 0.07 | 0.05 | 84 | 998.1 |
| 20260506002231 | 80 | 189 | 6.1 | 13.0 | 0.00 | 0.07 | 0.05 | 84 | 998.0 |
| 20260506002132 | 80 | 202 | 7.0 | 13.0 | 0.00 | 0.07 | 0.05 | 83 | 998.1 |
| 20260506002031 | 80 | 190 | 6.1 | 13.0 | 0.00 | 0.07 | 0.05 | 83 | 998.1 |
| 20260506001931 | 80 | 183 | 7.0 | 13.0 | 0.00 | 0.07 | 0.05 | 83 | 998.1 |
| 20260506001832 | 80 | 220 | 6.1 | 13.0 | 0.00 | 0.07 | 0.05 | 83 | 998.1 |
| 20260506001731 | 80 | 197 | 5.2 | 13.0 | 0.00 | 0.07 | 0.05 | 83 | 998.0 |
| 20260506001630 | 80 | 171 | 6.1 | 13.9 | 0.00 | 0.07 | 0.05 | 83 | 998.1 |
| 20260506001532 | 80 | 188 | 7.8 | 13.9 | 0.00 | 0.07 | 0.05 | 83 | 998.2 |
| 20260506001432 | 80 | 183 | 7.0 | 15.6 | 0.00 | 0.07 | 0.05 | 83 | 998.2 |
| 20260506001331 | 80 | 162 | 5.2 | 15.6 | 0.00 | 0.07 | 0.05 | 83 | 998.0 |
| 20260506001231 | 80 | 171 | 5.2 | 15.6 | 0.00 | 0.07 | 0.05 | 83 | 998.0 |
| 20260506001132 | 80 | 196 | 6.1 | 15.6 | 0.00 | 0.07 | 0.05 | 83 | 998.1 |
| 20260506001032 | 80 | 185 | 7.8 | 15.6 | 0.00 | 0.07 | 0.05 | 83 | 998.0 |
| 20260506000931 | 80 | 164 | 7.0 | 15.6 | 0.00 | 0.07 | 0.05 | 83 | 998.1 |
| 20260506000832 | 80 | 182 | 7.8 | 15.6 | 0.00 | 0.07 | 0.05 | 83 | 998.1 |
| 20260506000731 | 80 | 179 | 9.6 | 15.6 | 0.00 | 0.07 | 0.05 | 83 | 998.1 |
| 20260506000631 | 80 | 183 | 9.6 | 15.6 | 0.00 | 0.07 | 0.05 | 83 | 998.0 |
| 20260506000532 | 80 | 193 | 9.6 | 15.6 | 0.00 | 0.07 | 0.05 | 83 | 998.0 |
| 20260506000432 | 80 | 165 | 8.7 | 15.6 | 0.00 | 0.07 | 0.05 | 83 | 998.0 |
| 20260506000331 | 80 | 180 | 7.0 | 15.6 | 0.00 | 0.07 | 0.05 | 83 | 997.9 |
| 20260506000231 | 80 | 175 | 8.7 | 15.6 | 0.00 | 0.07 | 0.05 | 83 | 997.9 |
| 20260506000133 | 81 | 189 | 7.8 | 15.6 | 0.00 | 0.07 | 0.05 | 83 | 998.0 |
| 20260506000032 | 80 | 192 | 6.1 | 14.8 | 0.00 | 0.07 | 0.05 | 83 | 997.8 |
| 20260505235931 | 80 | 185 | 8.7 | 14.8 | 0.00 | 0.07 | 0.05 | 83 | 997.8 |
| 20260505235832 | 81 | 188 | 10.4 | 14.8 | 0.00 | 0.07 | 0.05 | 83 | 997.8 |
| 20260505235733 | 81 | 192 | 10.4 | 15.6 | 0.00 | 0.07 | 0.05 | 83 | 998.0 |
| 20260505235631 | 81 | 188 | 7.8 | 15.6 | 0.00 | 0.07 | 0.05 | 83 | 997.7 |
| 20260505235531 | 81 | 188 | 7.0 | 15.6 | 0.00 | 0.07 | 0.05 | 83 | 997.8 |
| 20260505235431 | 81 | 189 | 7.0 | 16.5 | 0.00 | 0.07 | 0.05 | 83 | 997.8 |
| 20260505235331 | 81 | 188 | 7.0 | 16.5 | 0.00 | 0.07 | 0.05 | 83 | 997.9 |
| 20260505235230 | 81 | 176 | 7.0 | 16.5 | 0.00 | 0.07 | 0.05 | 83 | 997.8 |
| 20260505235132 | 81 | 214 | 7.8 | 16.5 | 0.00 | 0.07 | 0.05 | 82 | 997.8 |
| 20260505235031 | 81 | 207 | 8.7 | 16.5 | 0.00 | 0.08 | 0.05 | 82 | 997.9 |
| 20260505234930 | 81 | 169 | 11.3 | 16.5 | 0.00 | 0.08 | 0.05 | 82 | 998.0 |
| 20260505234828 | 81 | 173 | 10.4 | 16.5 | 0.00 | 0.08 | 0.05 | 82 | 997.9 |
| 20260505234727 | 81 | 173 | 10.4 | 16.5 | 0.00 | 0.08 | 0.05 | 82 | 998.0 |
| 20260505234626 | 81 | 188 | 10.4 | 16.5 | 0.00 | 0.08 | 0.05 | 82 | 998.0 |
| 20260505234524 | 81 | 188 | 9.6 | 16.5 | 0.00 | 0.08 | 0.05 | 82 | 998.0 |
| 20260505234423 | 81 | 190 | 9.6 | 16.5 | 0.00 | 0.08 | 0.05 | 82 | 998.0 |
| 20260505234321 | 81 | 196 | 10.4 | 16.5 | 0.00 | 0.08 | 0.05 | 82 | 998.0 |
| 20260505234220 | 81 | 172 | 10.4 | 16.5 | 0.00 | 0.08 | 0.05 | 82 | 998.0 |
| 20260505234118 | 81 | 175 | 10.4 | 16.5 | 0.00 | 0.08 | 0.05 | 82 | 998.0 |
| 20260505234015 | 81 | 169 | 9.6 | 16.5 | 0.00 | 0.08 | 0.05 | 81 | 998.0 |
| 20260505233914 | 82 | 189 | 9.6 | 16.5 | 0.00 | 0.08 | 0.05 | 81 | 998.0 |
| 20260505233813 | 82 | 175 | 9.6 | 16.5 | 0.00 | 0.08 | 0.05 | 81 | 998.0 |
| 20260505233712 | 82 | 155 | 8.7 | 16.5 | 0.00 | 0.08 | 0.05 | 81 | 997.8 |
| 20260505233610 | 82 | 176 | 9.6 | 16.5 | 0.00 | 0.08 | 0.05 | 81 | 997.9 |
| 20260505233509 | 82 | 176 | 10.4 | 16.5 | 0.00 | 0.08 | 0.05 | 81 | 997.9 |
| 20260505233407 | 82 | 212 | 10.4 | 14.8 | 0.00 | 0.08 | 0.05 | 81 | 997.9 |
| 20260505233306 | 82 | 237 | 11.3 | 14.8 | 0.00 | 0.08 | 0.05 | 81 | 997.9 |
| 20260505233204 | 82 | 0 | 8.7 | 13.0 | 0.00 | 0.08 | 0.05 | 81 | 997.8 |
| 20260505233103 | 82 | 0 | 8.7 | 13.9 | 0.00 | 0.08 | 0.05 | 81 | 997.8 |
| 20260505233003 | 82 | 0 | 8.7 | 13.9 | 0.00 | 0.08 | 0.05 | 81 | 997.8 |
| 20260505232902 | 82 | 0 | 8.7 | 13.9 | 0.00 | 0.08 | 0.05 | 81 | 997.7 |
| 20260505232803 | 82 | 0 | 7.8 | 13.9 | 0.00 | 0.08 | 0.05 | 81 | 997.8 |
| 20260505232702 | 82 | 0 | 7.8 | 13.9 | 0.00 | 0.08 | 0.05 | 81 | 997.7 |
| 20260505232602 | 82 | 0 | 7.8 | 13.9 | 0.00 | 0.08 | 0.05 | 80 | 997.6 |
| 20260505232502 | 82 | 0 | 7.8 | 13.9 | 0.00 | 0.08 | 0.05 | 80 | 997.7 |
| 20260505232403 | 82 | 0 | 7.0 | 13.9 | 0.00 | 0.08 | 0.05 | 80 | 997.7 |
| 20260505232305 | 82 | 0 | 7.8 | 13.9 | 0.00 | 0.08 | 0.05 | 80 | 997.7 |
| 20260505232203 | 82 | 0 | 8.7 | 13.9 | 0.00 | 0.08 | 0.05 | 80 | 997.6 |
| 20260505232103 | 82 | 0 | 9.6 | 13.9 | 0.00 | 0.08 | 0.05 | 80 | 997.6 |
| 20260505232003 | 82 | 0 | 9.6 | 13.9 | 0.00 | 0.08 | 0.05 | 80 | 997.7 |
| 20260505231900 | 82 | 0 | 7.8 | 11.3 | 0.00 | 0.08 | 0.05 | 80 | 997.6 |
| 20260505231755 | 82 | 0 | 6.1 | 13.0 | 0.00 | 0.08 | 0.05 | 80 | 997.7 |
| 20260505231655 | 82 | 0 | 7.0 | 13.0 | 0.00 | 0.08 | 0.05 | 80 | 997.6 |
| 20260505231550 | 82 | 0 | 7.0 | 14.8 | 0.00 | 0.08 | 0.05 | 80 | 997.7 |
| 20260505231450 | 82 | 0 | 5.2 | 14.8 | 0.00 | 0.08 | 0.05 | 80 | 997.7 |
| 20260505231347 | 82 | 0 | 5.2 | 14.8 | 0.00 | 0.08 | 0.05 | 80 | 997.7 |
| 20260505231246 | 82 | 0 | 6.1 | 14.8 | 0.00 | 0.08 | 0.05 | 80 | 997.7 |
| 20260505231144 | 82 | 0 | 7.0 | 14.8 | 0.00 | 0.08 | 0.05 | 80 | 997.8 |
| 20260505231043 | 82 | 0 | 7.0 | 14.8 | 0.00 | 0.08 | 0.05 | 80 | 997.7 |
| 20260505230942 | 82 | 0 | 7.8 | 14.8 | 0.00 | 0.08 | 0.05 | 80 | 997.6 |
| 20260505230841 | 82 | 0 | 7.8 | 14.8 | 0.00 | 0.08 | 0.05 | 80 | 997.8 |
| 20260505230742 | 82 | 0 | 9.6 | 14.8 | 0.00 | 0.08 | 0.05 | 80 | 997.7 |
| 20260505230643 | 82 | 0 | 9.6 | 14.8 | 0.00 | 0.08 | 0.05 | 80 | 997.7 |
| 20260505230541 | 82 | 0 | 7.0 | 12.2 | 0.00 | 0.08 | 0.05 | 80 | 997.7 |
| 20260505230442 | 82 | 0 | 5.2 | 12.2 | 0.00 | 0.08 | 0.05 | 80 | 997.7 |
| 20260505230341 | 82 | 0 | 7.0 | 12.2 | 0.00 | 0.08 | 0.05 | 80 | 997.7 |
| 20260505230241 | 82 | 0 | 7.0 | 12.2 | 0.00 | 0.08 | 0.05 | 80 | 997.7 |
| 20260505230141 | 82 | 0 | 4.3 | 12.2 | 0.00 | 0.08 | 0.05 | 81 | 997.7 |
| 20260505230042 | 82 | 0 | 4.3 | 12.2 | 0.00 | 0.08 | 0.05 | 81 | 997.7 |
| 20260505225942 | 82 | 0 | 4.3 | 12.2 | 0.00 | 0.08 | 0.05 | 81 | 997.7 |
| 20260505225841 | 82 | 0 | 5.2 | 12.2 | 0.00 | 0.08 | 0.05 | 81 | 997.7 |
| 20260505225742 | 82 | 0 | 6.1 | 12.2 | 0.00 | 0.08 | 0.05 | 81 | 997.8 |
| 20260505225642 | 82 | 0 | 7.0 | 12.2 | 0.00 | 0.08 | 0.05 | 81 | 997.7 |
| 20260505225542 | 82 | 0 | 7.8 | 12.2 | 0.00 | 0.08 | 0.05 | 81 | 997.8 |
| 20260505225441 | 82 | 0 | 7.0 | 12.2 | 0.00 | 0.08 | 0.05 | 81 | 997.8 |
| 20260505225341 | 82 | 0 | 7.0 | 12.2 | 0.00 | 0.08 | 0.05 | 81 | 997.8 |
| 20260505225242 | 82 | 0 | 7.8 | 12.2 | 0.00 | 0.08 | 0.05 | 81 | 997.8 |
| 20260505225141 | 82 | 183 | 7.0 | 13.0 | 0.00 | 0.08 | 0.05 | 81 | 998.0 |
| 20260505225041 | 82 | 188 | 7.0 | 15.6 | 0.00 | 0.08 | 0.05 | 81 | 997.9 |
| 20260505224942 | 82 | 203 | 7.8 | 15.6 | 0.00 | 0.08 | 0.05 | 81 | 998.0 |
| 20260505224841 | 82 | 185 | 6.1 | 15.6 | 0.00 | 0.08 | 0.05 | 81 | 997.9 |
| 20260505224741 | 82 | 188 | 5.2 | 15.6 | 0.00 | 0.08 | 0.05 | 81 | 998.0 |
| 20260505224641 | 82 | 230 | 7.0 | 15.6 | 0.00 | 0.08 | 0.05 | 81 | 998.0 |
| 20260505224543 | 82 | 172 | 7.8 | 15.6 | 0.00 | 0.08 | 0.05 | 80 | 998.0 |
| 20260505224441 | 82 | 171 | 7.0 | 15.6 | 0.00 | 0.08 | 0.05 | 80 | 998.0 |
| 20260505224341 | 82 | 202 | 7.0 | 15.6 | 0.00 | 0.08 | 0.05 | 80 | 997.9 |
| 20260505224243 | 82 | 197 | 8.7 | 15.6 | 0.00 | 0.08 | 0.05 | 80 | 997.9 |
| 20260505224142 | 82 | 188 | 9.6 | 15.6 | 0.00 | 0.08 | 0.05 | 80 | 998.0 |
| 20260505224041 | 82 | 169 | 8.7 | 14.8 | 0.00 | 0.08 | 0.05 | 80 | 997.9 |
| 20260505223941 | 82 | 185 | 8.7 | 14.8 | 0.00 | 0.08 | 0.05 | 80 | 998.0 |
| 20260505223842 | 82 | 203 | 9.6 | 14.8 | 0.00 | 0.08 | 0.05 | 80 | 997.9 |
| 20260505223742 | 82 | 0 | 8.7 | 14.8 | 0.00 | 0.08 | 0.05 | 80 | 997.9 |
| 20260505223641 | 82 | 0 | 9.6 | 14.8 | 0.00 | 0.08 | 0.05 | 80 | 997.9 |
| 20260505223542 | 82 | 0 | 8.7 | 14.8 | 0.00 | 0.08 | 0.05 | 80 | 997.9 |
| 20260505223441 | 82 | 0 | 7.0 | 13.9 | 0.00 | 0.08 | 0.05 | 80 | 997.8 |
| 20260505223341 | 82 | 0 | 6.1 | 13.9 | 0.00 | 0.08 | 0.05 | 80 | 997.8 |
| 20260505223242 | 82 | 0 | 6.1 | 14.8 | 0.00 | 0.08 | 0.05 | 79 | 997.7 |
| 20260505223141 | 82 | 0 | 6.1 | 14.8 | 0.00 | 0.08 | 0.05 | 79 | 997.7 |
| 20260505223041 | 82 | 0 | 5.2 | 14.8 | 0.00 | 0.08 | 0.05 | 79 | 997.7 |
| 20260505222940 | 82 | 0 | 5.2 | 14.8 | 0.00 | 0.08 | 0.05 | 79 | 997.8 |
| 20260505222842 | 82 | 0 | 6.1 | 14.8 | 0.00 | 0.08 | 0.05 | 79 | 997.7 |
| 20260505222740 | 82 | 0 | 7.0 | 14.8 | 0.00 | 0.08 | 0.05 | 79 | 997.8 |
| 20260505222641 | 82 | 0 | 7.8 | 14.8 | 0.00 | 0.08 | 0.05 | 79 | 997.8 |
| 20260505222540 | 82 | 0 | 7.8 | 14.8 | 0.00 | 0.08 | 0.05 | 79 | 997.8 |
| 20260505222441 | 83 | 0 | 8.7 | 14.8 | 0.00 | 0.08 | 0.05 | 79 | 997.9 |
| 20260505222340 | 83 | 0 | 9.6 | 14.8 | 0.00 | 0.08 | 0.05 | 79 | 997.9 |
| 20260505222242 | 83 | 0 | 9.6 | 14.8 | 0.00 | 0.08 | 0.05 | 79 | 998.0 |
| 20260505222142 | 83 | 0 | 9.6 | 14.8 | 0.00 | 0.08 | 0.05 | 79 | 998.0 |
| 20260505222040 | 83 | 0 | 8.7 | 14.8 | 0.00 | 0.08 | 0.05 | 79 | 998.0 |
| 20260505221941 | 83 | 0 | 9.6 | 14.8 | 0.00 | 0.08 | 0.05 | 79 | 998.0 |
| 20260505221840 | 83 | 0 | 9.6 | 14.8 | 0.00 | 0.08 | 0.05 | 79 | 998.0 |
| 20260505221741 | 83 | 0 | 8.7 | 13.9 | 0.00 | 0.08 | 0.05 | 79 | 997.9 |
| 20260505221640 | 83 | 0 | 6.1 | 13.9 | 0.00 | 0.08 | 0.05 | 80 | 997.9 |
| 20260505221540 | 83 | 0 | 5.2 | 12.2 | 0.00 | 0.08 | 0.05 | 79 | 997.9 |
| 20260505221442 | 83 | 0 | 7.0 | 12.2 | 0.00 | 0.08 | 0.05 | 79 | 997.9 |
| 20260505221341 | 83 | 0 | 6.1 | 13.0 | 0.00 | 0.08 | 0.05 | 80 | 998.0 |
| 20260505221240 | 83 | 0 | 5.2 | 13.0 | 0.00 | 0.08 | 0.05 | 80 | 998.0 |
| 20260505221142 | 83 | 0 | 6.1 | 13.0 | 0.00 | 0.09 | 0.05 | 80 | 998.0 |
| 20260505221040 | 83 | 0 | 6.1 | 13.0 | 0.00 | 0.09 | 0.05 | 79 | 997.9 |
| 20260505220941 | 83 | 0 | 6.1 | 13.0 | 0.00 | 0.09 | 0.05 | 79 | 997.9 |
| 20260505220840 | 83 | 0 | 5.2 | 13.0 | 0.00 | 0.09 | 0.05 | 79 | 997.9 |
| 20260505220742 | 83 | 0 | 5.2 | 13.0 | 0.00 | 0.09 | 0.05 | 79 | 997.9 |
| 20260505220640 | 83 | 0 | 6.1 | 13.9 | 0.00 | 0.09 | 0.05 | 79 | 998.0 |
| 20260505220540 | 83 | 0 | 7.8 | 13.9 | 0.00 | 0.09 | 0.05 | 79 | 998.0 |
| 20260505220442 | 83 | 0 | 6.1 | 13.9 | 0.00 | 0.09 | 0.05 | 79 | 998.0 |
| 20260505220340 | 83 | 0 | 5.2 | 13.9 | 0.00 | 0.09 | 0.05 | 80 | 998.1 |
| 20260505220240 | 83 | 0 | 5.2 | 13.9 | 0.00 | 0.09 | 0.05 | 79 | 998.0 |
| 20260505220140 | 83 | 0 | 6.1 | 13.9 | 0.00 | 0.09 | 0.05 | 80 | 998.1 |
| 20260505220042 | 83 | 0 | 9.6 | 13.9 | 0.00 | 0.09 | 0.05 | 79 | 998.1 |
| 20260505215941 | 83 | 0 | 9.6 | 13.9 | 0.00 | 0.09 | 0.05 | 79 | 998.1 |
| 20260505215840 | 83 | 0 | 9.6 | 13.9 | 0.00 | 0.09 | 0.05 | 79 | 998.2 |
| 20260505215741 | 83 | 0 | 7.8 | 13.9 | 0.00 | 0.09 | 0.05 | 79 | 998.1 |
| 20260505215640 | 83 | 0 | 7.0 | 13.9 | 0.00 | 0.09 | 0.05 | 79 | 998.1 |
| 20260505215540 | 83 | 0 | 7.0 | 13.9 | 0.00 | 0.09 | 0.05 | 79 | 998.1 |
| 20260505215440 | 83 | 0 | 8.7 | 13.9 | 0.00 | 0.09 | 0.05 | 79 | 998.1 |
| 20260505215341 | 83 | 0 | 9.6 | 13.9 | 0.00 | 0.09 | 0.05 | 79 | 998.0 |
| 20260505215240 | 83 | 0 | 9.6 | 13.9 | 0.00 | 0.09 | 0.05 | 79 | 998.0 |
| 20260505215141 | 83 | 0 | 6.1 | 13.9 | 0.00 | 0.09 | 0.05 | 79 | 998.1 |
| 20260505215041 | 83 | 0 | 6.1 | 13.9 | 0.00 | 0.09 | 0.05 | 79 | 998.0 |
| 20260505214941 | 83 | 0 | 6.1 | 14.8 | 0.00 | 0.09 | 0.05 | 79 | 998.2 |
| 20260505214841 | 83 | 0 | 6.1 | 14.8 | 0.00 | 0.09 | 0.05 | 79 | 998.1 |
| 20260505214741 | 83 | 0 | 6.1 | 14.8 | 0.00 | 0.09 | 0.05 | 79 | 998.2 |
| 20260505214641 | 83 | 0 | 6.1 | 14.8 | 0.00 | 0.09 | 0.05 | 79 | 998.1 |
| 20260505214540 | 83 | 0 | 7.0 | 14.8 | 0.00 | 0.09 | 0.05 | 79 | 998.2 |
| 20260505214439 | 83 | 0 | 7.8 | 14.8 | 0.00 | 0.09 | 0.05 | 79 | 998.2 |
| 20260505214341 | 83 | 0 | 8.7 | 14.8 | 0.00 | 0.09 | 0.05 | 79 | 998.2 |
| 20260505214240 | 83 | 0 | 9.6 | 14.8 | 0.00 | 0.09 | 0.05 | 79 | 998.3 |
| 20260505214139 | 83 | 0 | 9.6 | 14.8 | 0.00 | 0.09 | 0.05 | 79 | 998.4 |
| 20260505214039 | 83 | 0 | 7.8 | 14.8 | 0.00 | 0.09 | 0.05 | 79 | 998.4 |
| 20260505213940 | 83 | 0 | 5.2 | 13.9 | 0.00 | 0.09 | 0.05 | 80 | 998.4 |
| 20260505213840 | 83 | 0 | 5.2 | 17.4 | 0.00 | 0.09 | 0.05 | 79 | 998.4 |
| 20260505213739 | 83 | 0 | 4.3 | 17.4 | 0.00 | 0.09 | 0.05 | 80 | 998.4 |
| 20260505213640 | 83 | 0 | 4.3 | 17.4 | 0.00 | 0.09 | 0.05 | 79 | 998.4 |
| 20260505213540 | 83 | 0 | 5.2 | 17.4 | 0.00 | 0.09 | 0.05 | 79 | 998.4 |
| 20260505213440 | 83 | 0 | 5.2 | 17.4 | 0.00 | 0.09 | 0.05 | 79 | 998.4 |
| 20260505213339 | 83 | 0 | 5.2 | 17.4 | 0.00 | 0.09 | 0.05 | 79 | 998.4 |
| 20260505213240 | 83 | 0 | 7.0 | 17.4 | 0.00 | 0.09 | 0.05 | 79 | 998.4 |
| 20260505213139 | 83 | 0 | 8.7 | 17.4 | 0.00 | 0.09 | 0.05 | 79 | 998.5 |
| 20260505213039 | 83 | 0 | 10.4 | 17.4 | 0.00 | 0.09 | 0.05 | 79 | 998.5 |
| 20260505212941 | 83 | 0 | 9.6 | 15.6 | 0.00 | 0.09 | 0.05 | 79 | 998.7 |
| 20260505212839 | 83 | 0 | 8.7 | 13.0 | 0.00 | 0.09 | 0.05 | 79 | 998.6 |
| 20260505212739 | 83 | 0 | 7.8 | 13.0 | 0.00 | 0.09 | 0.05 | 79 | 998.6 |
| 20260505212639 | 83 | 0 | 6.1 | 13.0 | 0.00 | 0.09 | 0.05 | 79 | 998.6 |
| 20260505212539 | 83 | 0 | 6.1 | 13.9 | 0.00 | 0.09 | 0.05 | 79 | 998.6 |
| 20260505212439 | 83 | 0 | 7.0 | 14.8 | 0.00 | 0.09 | 0.05 | 79 | 998.6 |
| 20260505212339 | 83 | 0 | 7.0 | 14.8 | 0.00 | 0.09 | 0.05 | 79 | 998.7 |
| 20260505212242 | 83 | 0 | 6.1 | 14.8 | 0.00 | 0.09 | 0.05 | 79 | 998.8 |
| 20260505212139 | 83 | 0 | 6.1 | 14.8 | 0.00 | 0.09 | 0.05 | 79 | 998.6 |
| 20260505212039 | 83 | 0 | 6.1 | 14.8 | 0.00 | 0.09 | 0.05 | 79 | 998.7 |
| 20260505211941 | 83 | 0 | 6.1 | 14.8 | 0.00 | 0.09 | 0.05 | 79 | 998.7 |
| 20260505211839 | 83 | 0 | 7.8 | 14.8 | 0.00 | 0.09 | 0.05 | 79 | 998.7 |
| 20260505211739 | 83 | 0 | 8.7 | 14.8 | 0.00 | 0.09 | 0.05 | 79 | 998.7 |
| 20260505211639 | 83 | 0 | 9.6 | 14.8 | 0.00 | 0.09 | 0.05 | 78 | 998.7 |
| 20260505211541 | 83 | 0 | 8.7 | 14.8 | 0.00 | 0.09 | 0.05 | 79 | 998.8 |
| 20260505211439 | 83 | 0 | 7.8 | 14.8 | 0.00 | 0.09 | 0.05 | 79 | 998.8 |
| 20260505211339 | 84 | 0 | 7.8 | 14.8 | 0.00 | 0.09 | 0.05 | 79 | 998.7 |
| 20260505211240 | 84 | 0 | 7.8 | 14.8 | 0.00 | 0.09 | 0.05 | 79 | 998.8 |
| 20260505211138 | 84 | 0 | 7.8 | 13.0 | 0.00 | 0.09 | 0.05 | 79 | 998.7 |
| 20260505211040 | 84 | 0 | 6.1 | 13.0 | 0.00 | 0.09 | 0.05 | 79 | 998.6 |
| 20260505210939 | 84 | 0 | 6.1 | 13.0 | 0.00 | 0.09 | 0.05 | 79 | 998.6 |
| 20260505210840 | 84 | 0 | 6.1 | 13.0 | 0.00 | 0.09 | 0.05 | 79 | 998.7 |
| 20260505210738 | 84 | 0 | 7.8 | 13.0 | 0.00 | 0.09 | 0.05 | 79 | 998.6 |
| 20260505210638 | 84 | 0 | 6.1 | 11.3 | 0.00 | 0.09 | 0.05 | 80 | 998.6 |
| 20260505210538 | 83 | 0 | 4.3 | 10.4 | 0.00 | 0.09 | 0.05 | 80 | 998.6 |
| 20260505210439 | 83 | 0 | 4.3 | 10.4 | 0.00 | 0.09 | 0.05 | 79 | 998.6 |
| 20260505210340 | 83 | 0 | 5.2 | 11.3 | 0.00 | 0.09 | 0.05 | 79 | 998.7 |
| 20260505210240 | 83 | 0 | 6.1 | 14.8 | 0.00 | 0.09 | 0.05 | 79 | 998.6 |
| 20260505210140 | 83 | 0 | 6.1 | 14.8 | 0.00 | 0.09 | 0.05 | 78 | 998.7 |
| 20260505210039 | 83 | 0 | 6.1 | 14.8 | 0.00 | 0.09 | 0.05 | 78 | 998.8 |
| 20260505205936 | 83 | 0 | 6.1 | 14.8 | 0.00 | 0.09 | 0.05 | 78 | 998.8 |
| 20260505205835 | 83 | 0 | 6.1 | 17.4 | 0.00 | 0.09 | 0.05 | 78 | 998.8 |
| 20260505205733 | 83 | 0 | 6.1 | 17.4 | 0.00 | 0.09 | 0.05 | 78 | 998.8 |
| 20260505205632 | 83 | 0 | 7.0 | 17.4 | 0.00 | 0.10 | 0.05 | 78 | 998.8 |
| 20260505205532 | 83 | 0 | 7.0 | 17.4 | 0.00 | 0.10 | 0.05 | 79 | 998.8 |
| 20260505205430 | 83 | 0 | 7.8 | 17.4 | 0.00 | 0.10 | 0.05 | 79 | 998.8 |
| 20260505205332 | 83 | 0 | 8.7 | 17.4 | 0.00 | 0.10 | 0.05 | 78 | 998.8 |
| 20260505205231 | 83 | 0 | 7.8 | 17.4 | 0.00 | 0.10 | 0.05 | 78 | 998.9 |
| 20260505205131 | 83 | 0 | 7.8 | 17.4 | 0.00 | 0.10 | 0.05 | 78 | 998.8 |
| 20260505205031 | 83 | 0 | 8.7 | 17.4 | 0.00 | 0.10 | 0.05 | 78 | 998.9 |
| 20260505204932 | 83 | 0 | 7.0 | 17.4 | 0.00 | 0.10 | 0.05 | 79 | 998.9 |
| 20260505204831 | 83 | 0 | 6.1 | 15.6 | 0.00 | 0.10 | 0.05 | 78 | 998.8 |
| 20260505204731 | 84 | 0 | 7.0 | 15.6 | 0.00 | 0.10 | 0.05 | 78 | 998.9 |
| 20260505204632 | 84 | 0 | 7.8 | 15.6 | 0.00 | 0.10 | 0.05 | 78 | 998.8 |
| 20260505204531 | 84 | 0 | 8.7 | 15.6 | 0.00 | 0.10 | 0.05 | 78 | 999.0 |
| 20260505204431 | 84 | 0 | 8.7 | 15.6 | 0.00 | 0.10 | 0.05 | 78 | 998.9 |
| 20260505204332 | 84 | 0 | 7.8 | 13.9 | 0.00 | 0.10 | 0.05 | 78 | 998.9 |
| 20260505204232 | 84 | 0 | 6.1 | 13.9 | 0.00 | 0.10 | 0.05 | 78 | 999.0 |
| 20260505204131 | 84 | 0 | 7.0 | 13.9 | 0.00 | 0.10 | 0.05 | 78 | 998.9 |
| 20260505204031 | 84 | 0 | 7.8 | 13.9 | 0.00 | 0.10 | 0.05 | 78 | 999.0 |
| 20260505203932 | 84 | 0 | 7.0 | 13.9 | 0.00 | 0.10 | 0.05 | 79 | 999.0 |
| 20260505203831 | 84 | 0 | 7.0 | 13.9 | 0.00 | 0.10 | 0.05 | 78 | 999.0 |
| 20260505203731 | 84 | 0 | 7.0 | 13.9 | 0.00 | 0.10 | 0.05 | 78 | 999.0 |
| 20260505203633 | 84 | 0 | 7.8 | 13.9 | 0.00 | 0.10 | 0.05 | 79 | 999.0 |
| 20260505203532 | 84 | 0 | 7.0 | 13.9 | 0.00 | 0.10 | 0.05 | 79 | 999.0 |
| 20260505203432 | 84 | 0 | 7.0 | 10.4 | 0.00 | 0.10 | 0.05 | 79 | 999.0 |
| 20260505203331 | 84 | 0 | 7.0 | 10.4 | 0.00 | 0.10 | 0.05 | 79 | 999.1 |
| 20260505203232 | 83 | 0 | 6.1 | 11.3 | 0.00 | 0.10 | 0.05 | 79 | 999.1 |
| 20260505203131 | 83 | 0 | 6.1 | 11.3 | 0.00 | 0.10 | 0.05 | 79 | 999.2 |
| 20260505203030 | 83 | 0 | 6.1 | 13.9 | 0.00 | 0.10 | 0.05 | 79 | 999.2 |
| 20260505202932 | 83 | 0 | 6.1 | 13.9 | 0.00 | 0.10 | 0.05 | 79 | 999.2 |
| 20260505202831 | 83 | 0 | 7.0 | 13.9 | 0.00 | 0.10 | 0.05 | 79 | 999.3 |
| 20260505202731 | 83 | 0 | 7.0 | 13.9 | 0.00 | 0.10 | 0.05 | 79 | 999.2 |
| 20260505202631 | 83 | 0 | 7.0 | 13.9 | 0.00 | 0.10 | 0.05 | 79 | 999.2 |
| 20260505202531 | 83 | 0 | 6.1 | 13.9 | 0.00 | 0.10 | 0.05 | 79 | 999.2 |
| 20260505202431 | 83 | 0 | 7.8 | 13.9 | 0.00 | 0.10 | 0.05 | 79 | 999.2 |
| 20260505202331 | 83 | 0 | 7.8 | 13.9 | 0.00 | 0.10 | 0.05 | 79 | 999.3 |
| 20260505202232 | 83 | 0 | 8.7 | 13.9 | 0.00 | 0.10 | 0.05 | 79 | 999.2 |
| 20260505202131 | 83 | 0 | 7.8 | 13.9 | 0.00 | 0.10 | 0.05 | 79 | 999.2 |
| 20260505202030 | 83 | 0 | 6.1 | 13.9 | 0.00 | 0.10 | 0.05 | 80 | 999.2 |
| 20260505201932 | 83 | 0 | 7.0 | 13.9 | 0.00 | 0.10 | 0.05 | 79 | 999.2 |
| 20260505201832 | 83 | 0 | 7.8 | 13.9 | 0.00 | 0.10 | 0.05 | 79 | 999.2 |
| 20260505201731 | 83 | 0 | 8.7 | 13.9 | 0.00 | 0.10 | 0.05 | 79 | 999.2 |
| 20260505201631 | 83 | 0 | 9.6 | 13.9 | 0.00 | 0.10 | 0.05 | 79 | 999.3 |
| 20260505201532 | 83 | 0 | 9.6 | 13.9 | 0.00 | 0.10 | 0.05 | 79 | 999.4 |
| 20260505201432 | 83 | 0 | 8.7 | 14.8 | 0.00 | 0.10 | 0.05 | 79 | 999.4 |
| 20260505201331 | 83 | 0 | 7.0 | 14.8 | 0.00 | 0.10 | 0.05 | 80 | 999.4 |
| 20260505201233 | 83 | 0 | 6.1 | 14.8 | 0.00 | 0.10 | 0.05 | 80 | 999.3 |
| 20260505201131 | 83 | 0 | 7.0 | 14.8 | 0.00 | 0.10 | 0.05 | 80 | 999.4 |
| 20260505201030 | 83 | 0 | 7.0 | 14.8 | 0.00 | 0.10 | 0.05 | 80 | 999.3 |
| 20260505200931 | 83 | 0 | 7.8 | 14.8 | 0.00 | 0.10 | 0.05 | 79 | 999.5 |
| 20260505200832 | 83 | 0 | 8.7 | 14.8 | 0.00 | 0.10 | 0.05 | 80 | 999.5 |
| 20260505200731 | 83 | 0 | 7.8 | 14.8 | 0.00 | 0.10 | 0.05 | 80 | 999.6 |
| 20260505200632 | 83 | 0 | 8.7 | 14.8 | 0.00 | 0.10 | 0.05 | 79 | 999.5 |
| 20260505200532 | 83 | 0 | 8.7 | 14.8 | 0.00 | 0.10 | 0.05 | 79 | 999.6 |
| 20260505200432 | 83 | 0 | 7.8 | 12.2 | 0.00 | 0.10 | 0.05 | 79 | 999.5 |
| 20260505200331 | 83 | 0 | 6.1 | 11.3 | 0.00 | 0.10 | 0.05 | 80 | 999.5 |
| 20260505200233 | 83 | 0 | 4.3 | 11.3 | 0.00 | 0.10 | 0.05 | 80 | 999.5 |
| 20260505200131 | 83 | 0 | 4.3 | 11.3 | 0.00 | 0.10 | 0.05 | 80 | 999.5 |
| 20260505200031 | 83 | 0 | 6.1 | 11.3 | 0.00 | 0.10 | 0.05 | 80 | 999.6 |
| 20260505195932 | 83 | 0 | 7.8 | 11.3 | 0.00 | 0.10 | 0.05 | 80 | 999.7 |
| 20260505195832 | 83 | 0 | 6.1 | 11.3 | 0.00 | 0.10 | 0.05 | 80 | 999.6 |
| 20260505195731 | 83 | 0 | 7.0 | 11.3 | 0.00 | 0.10 | 0.05 | 80 | 999.7 |
| 20260505195631 | 83 | 0 | 6.1 | 11.3 | 0.00 | 0.10 | 0.05 | 80 | 999.7 |
| 20260505195533 | 83 | 0 | 4.3 | 10.4 | 0.00 | 0.10 | 0.05 | 80 | 999.7 |
| 20260505195432 | 83 | 0 | 5.2 | 10.4 | 0.00 | 0.10 | 0.05 | 80 | 999.8 |
| 20260505195330 | 83 | 0 | 5.2 | 10.4 | 0.00 | 0.10 | 0.05 | 80 | 999.8 |
| 20260505195230 | 83 | 0 | 6.1 | 13.9 | 0.00 | 0.10 | 0.05 | 80 | 999.9 |
| 20260505195128 | 83 | 0 | 6.1 | 13.9 | 0.00 | 0.10 | 0.05 | 80 | 999.9 |
| 20260505195026 | 83 | 0 | 7.0 | 13.9 | 0.00 | 0.10 | 0.05 | 80 | 999.8 |
| 20260505194925 | 83 | 0 | 5.2 | 13.9 | 0.00 | 0.10 | 0.05 | 81 | 999.8 |
| 20260505194823 | 83 | 0 | 5.2 | 13.9 | 0.00 | 0.10 | 0.05 | 81 | 999.8 |
| 20260505194721 | 83 | 0 | 4.3 | 14.8 | 0.00 | 0.10 | 0.05 | 80 | 999.8 |
| 20260505194620 | 83 | 0 | 5.2 | 17.4 | 0.00 | 0.10 | 0.05 | 80 | 999.9 |
| 20260505194518 | 83 | 0 | 6.1 | 17.4 | 0.00 | 0.10 | 0.05 | 80 | 999.9 |
| 20260505194416 | 83 | 0 | 7.8 | 17.4 | 0.00 | 0.10 | 0.05 | 80 | 999.9 |
| 20260505194305 | 83 | 0 | 8.7 | 18.2 | 0.00 | 0.10 | 0.05 | 80 | 1000.0 |
| 20260505194204 | 83 | 0 | 7.8 | 18.2 | 0.00 | 0.10 | 0.05 | 80 | 999.9 |
| 20260505194103 | 82 | 0 | 7.0 | 18.2 | 0.00 | 0.10 | 0.05 | 80 | 999.9 |
| 20260505194003 | 82 | 0 | 7.8 | 18.2 | 0.00 | 0.10 | 0.05 | 80 | 1000.0 |
| 20260505193904 | 82 | 0 | 8.7 | 18.2 | 0.00 | 0.10 | 0.05 | 80 | 999.9 |
| 20260505193802 | 82 | 0 | 10.4 | 18.2 | 0.00 | 0.10 | 0.05 | 80 | 999.8 |
| 20260505193702 | 82 | 0 | 10.4 | 18.2 | 0.00 | 0.10 | 0.05 | 80 | 999.9 |
| 20260505193602 | 83 | 0 | 9.6 | 18.2 | 0.00 | 0.10 | 0.05 | 80 | 999.9 |
| 20260505193505 | 83 | 0 | 9.6 | 18.2 | 0.00 | 0.10 | 0.05 | 80 | 1000.0 |
| 20260505193402 | 83 | 0 | 7.8 | 18.2 | 0.00 | 0.10 | 0.05 | 80 | 999.9 |
| 20260505193302 | 83 | 0 | 7.0 | 13.9 | 0.00 | 0.11 | 0.05 | 80 | 999.9 |
| 20260505193203 | 83 | 0 | 8.7 | 13.9 | 0.00 | 0.11 | 0.05 | 80 | 1000.0 |
| 20260505193102 | 83 | 0 | 7.0 | 13.9 | 0.00 | 0.11 | 0.05 | 80 | 999.9 |
| 20260505193002 | 83 | 0 | 6.1 | 13.9 | 0.00 | 0.11 | 0.05 | 80 | 999.9 |
| 20260505192904 | 83 | 0 | 6.1 | 13.9 | 0.00 | 0.11 | 0.05 | 80 | 999.8 |
| 20260505192802 | 83 | 0 | 7.0 | 13.9 | 0.00 | 0.11 | 0.05 | 80 | 999.9 |
| 20260505192702 | 82 | 0 | 7.0 | 13.9 | 0.00 | 0.11 | 0.05 | 80 | 999.9 |
| 20260505192602 | 83 | 0 | 7.8 | 13.9 | 0.00 | 0.11 | 0.05 | 80 | 999.9 |
| 20260505192504 | 83 | 0 | 7.8 | 13.9 | 0.00 | 0.11 | 0.05 | 80 | 999.9 |
| 20260505192402 | 83 | 0 | 7.0 | 13.9 | 0.00 | 0.11 | 0.05 | 80 | 999.9 |
| 20260505192305 | 83 | 0 | 7.8 | 13.9 | 0.00 | 0.11 | 0.05 | 80 | 999.9 |
| 20260505192203 | 83 | 0 | 7.8 | 13.9 | 0.00 | 0.11 | 0.05 | 80 | 999.8 |
| 20260505192102 | 83 | 0 | 7.8 | 13.9 | 0.00 | 0.11 | 0.05 | 80 | 999.9 |
| 20260505192002 | 83 | 0 | 7.0 | 12.2 | 0.00 | 0.11 | 0.05 | 80 | 999.9 |
| 20260505191902 | 83 | 0 | 7.0 | 11.3 | 0.00 | 0.11 | 0.05 | 80 | 999.9 |
| 20260505191802 | 83 | 0 | 7.0 | 11.3 | 0.00 | 0.11 | 0.05 | 81 | 999.8 |
| 20260505191702 | 83 | 0 | 5.2 | 11.3 | 0.00 | 0.11 | 0.05 | 81 | 999.8 |
| 20260505191602 | 83 | 0 | 5.2 | 11.3 | 0.00 | 0.11 | 0.05 | 81 | 999.8 |
| 20260505191504 | 83 | 0 | 5.2 | 11.3 | 0.00 | 0.11 | 0.05 | 81 | 999.9 |
| 20260505191402 | 83 | 0 | 4.3 | 12.2 | 0.00 | 0.11 | 0.05 | 81 | 999.9 |
| 20260505191300 | 83 | 0 | 5.2 | 12.2 | 0.00 | 0.11 | 0.05 | 81 | 999.8 |
| 20260505191158 | 83 | 0 | 6.1 | 12.2 | 0.00 | 0.11 | 0.05 | 81 | 1000.0 |
| 20260505191057 | 83 | 0 | 5.2 | 12.2 | 0.00 | 0.11 | 0.05 | 81 | 999.9 |
| 20260505190955 | 82 | 0 | 4.3 | 12.2 | 0.00 | 0.11 | 0.05 | 82 | 999.9 |
| 20260505190855 | 82 | 0 | 3.5 | 12.2 | 0.00 | 0.11 | 0.05 | 82 | 999.9 |
| 20260505190753 | 82 | 0 | 4.3 | 12.2 | 0.00 | 0.11 | 0.05 | 81 | 999.9 |
| 20260505190650 | 82 | 0 | 7.0 | 12.2 | 0.00 | 0.11 | 0.05 | 81 | 1000.0 |
| 20260505190549 | 82 | 0 | 7.8 | 13.0 | 0.00 | 0.11 | 0.05 | 81 | 999.9 |
| 20260505190448 | 82 | 0 | 7.0 | 13.0 | 0.00 | 0.11 | 0.05 | 82 | 1000.0 |
| 20260505190345 | 82 | 0 | 6.1 | 13.0 | 0.00 | 0.11 | 0.05 | 82 | 1000.0 |
| 20260505190246 | 82 | 0 | 5.2 | 13.0 | 0.00 | 0.11 | 0.05 | 82 | 999.9 |
| 20260505190140 | 82 | 0 | 5.2 | 13.0 | 0.00 | 0.11 | 0.05 | 82 | 1000.0 |
| 20260505190039 | 82 | 0 | 5.2 | 17.4 | 0.00 | 0.11 | 0.05 | 82 | 1000.1 |
| 20260505185936 | 82 | 0 | 5.2 | 17.4 | 0.00 | 0.11 | 0.05 | 82 | 1000.0 |
| 20260505185836 | 82 | 0 | 7.0 | 17.4 | 0.00 | 0.11 | 0.05 | 82 | 1000.1 |
| 20260505185737 | 82 | 0 | 7.8 | 17.4 | 0.00 | 0.11 | 0.05 | 82 | 1000.1 |
| 20260505185637 | 82 | 0 | 7.8 | 17.4 | 0.00 | 0.11 | 0.05 | 82 | 1000.2 |
| 20260505185536 | 82 | 0 | 7.0 | 17.4 | 0.00 | 0.11 | 0.05 | 82 | 1000.2 |
| 20260505185436 | 81 | 0 | 7.8 | 17.4 | 0.00 | 0.11 | 0.05 | 82 | 1000.2 |
| 20260505185337 | 81 | 0 | 7.0 | 17.4 | 0.00 | 0.11 | 0.05 | 82 | 1000.2 |
| 20260505185235 | 81 | 0 | 7.8 | 17.4 | 0.00 | 0.11 | 0.05 | 82 | 1000.2 |
| 20260505185136 | 81 | 0 | 8.7 | 17.4 | 0.00 | 0.11 | 0.05 | 83 | 1000.2 |
| 20260505185037 | 81 | 0 | 7.8 | 12.2 | 0.00 | 0.11 | 0.05 | 83 | 1000.3 |
| 20260505184936 | 81 | 0 | 7.8 | 12.2 | 0.00 | 0.11 | 0.05 | 83 | 1000.2 |
| 20260505184836 | 81 | 0 | 6.1 | 12.2 | 0.00 | 0.11 | 0.05 | 83 | 1000.2 |
| 20260505184736 | 81 | 0 | 6.1 | 12.2 | 0.00 | 0.11 | 0.05 | 83 | 1000.2 |
| 20260505184636 | 81 | 0 | 7.0 | 13.0 | 0.00 | 0.11 | 0.05 | 83 | 1000.2 |
| 20260505184536 | 81 | 0 | 6.1 | 13.0 | 0.00 | 0.11 | 0.05 | 84 | 1000.2 |
| 20260505184436 | 81 | 0 | 4.3 | 13.0 | 0.00 | 0.11 | 0.05 | 84 | 1000.3 |
| 20260505184335 | 81 | 0 | 5.2 | 13.0 | 0.01 | 0.11 | 0.05 | 84 | 1000.3 |
| 20260505184236 | 81 | 0 | 5.2 | 13.0 | 0.01 | 0.11 | 0.05 | 84 | 1000.4 |
| 20260505184136 | 81 | 0 | 4.3 | 13.0 | 0.01 | 0.11 | 0.05 | 84 | 1000.4 |
| 20260505184036 | 81 | 0 | 5.2 | 13.0 | 0.01 | 0.11 | 0.05 | 84 | 1000.3 |
| 20260505183935 | 81 | 0 | 6.1 | 13.0 | 0.01 | 0.11 | 0.05 | 84 | 1000.4 |
| 20260505183835 | 81 | 0 | 6.1 | 13.0 | 0.01 | 0.11 | 0.05 | 84 | 1000.5 |
| 20260505183736 | 81 | 0 | 6.1 | 13.0 | 0.01 | 0.11 | 0.05 | 84 | 1000.5 |
| 20260505183635 | 81 | 0 | 7.8 | 13.0 | 0.01 | 0.11 | 0.05 | 84 | 1000.5 |
| 20260505183536 | 81 | 0 | 8.7 | 13.0 | 0.01 | 0.11 | 0.05 | 84 | 1000.5 |
| 20260505183435 | 81 | 0 | 7.8 | 13.0 | 0.01 | 0.11 | 0.05 | 84 | 1000.5 |
| 20260505183336 | 81 | 0 | 6.1 | 13.0 | 0.01 | 0.11 | 0.05 | 84 | 1000.7 |
| 20260505183237 | 81 | 0 | 6.1 | 13.0 | 0.01 | 0.11 | 0.05 | 84 | 1000.5 |
| 20260505183135 | 81 | 0 | 6.1 | 13.0 | 0.01 | 0.11 | 0.05 | 84 | 1000.5 |
| 20260505183037 | 81 | 0 | 6.1 | 13.0 | 0.01 | 0.11 | 0.05 | 84 | 1000.3 |
| 20260505182935 | 81 | 0 | 7.0 | 13.0 | 0.01 | 0.11 | 0.05 | 84 | 1000.5 |
| 20260505182835 | 81 | 0 | 6.1 | 13.0 | 0.01 | 0.11 | 0.05 | 84 | 1000.5 |
| 20260505182736 | 81 | 0 | 5.2 | 13.0 | 0.01 | 0.11 | 0.05 | 84 | 1000.4 |
| 20260505182635 | 81 | 0 | 6.1 | 13.0 | 0.01 | 0.11 | 0.05 | 84 | 1000.4 |
| 20260505182537 | 81 | 0 | 7.8 | 13.0 | 0.01 | 0.11 | 0.05 | 84 | 1000.4 |
| 20260505182435 | 81 | 0 | 7.0 | 13.0 | 0.01 | 0.11 | 0.05 | 84 | 1000.5 |
| 20260505182335 | 81 | 0 | 7.0 | 11.3 | 0.01 | 0.11 | 0.05 | 84 | 1000.5 |
| 20260505182236 | 81 | 0 | 7.0 | 11.3 | 0.01 | 0.11 | 0.05 | 84 | 1000.5 |
| 20260505182135 | 81 | 0 | 6.1 | 10.4 | 0.01 | 0.11 | 0.05 | 85 | 1000.5 |
| 20260505182035 | 81 | 0 | 5.2 | 10.4 | 0.01 | 0.11 | 0.05 | 85 | 1000.5 |
| 20260505181935 | 80 | 0 | 5.2 | 10.4 | 0.01 | 0.12 | 0.05 | 85 | 1000.5 |
| 20260505181837 | 80 | 0 | 5.2 | 12.2 | 0.01 | 0.12 | 0.05 | 85 | 1000.5 |
| 20260505181735 | 80 | 0 | 3.5 | 12.2 | 0.01 | 0.12 | 0.05 | 85 | 1000.5 |
| 20260505181634 | 80 | 0 | 3.5 | 12.2 | 0.01 | 0.12 | 0.05 | 85 | 1000.5 |
| 20260505181536 | 80 | 0 | 5.2 | 12.2 | 0.01 | 0.12 | 0.05 | 85 | 1000.5 |
| 20260505181435 | 80 | 0 | 6.1 | 12.2 | 0.01 | 0.12 | 0.05 | 85 | 1000.5 |
| 20260505181335 | 80 | 0 | 6.1 | 12.2 | 0.01 | 0.12 | 0.05 | 85 | 1000.5 |
| 20260505181235 | 80 | 0 | 7.0 | 12.2 | 0.01 | 0.12 | 0.05 | 85 | 1000.5 |
| 20260505181136 | 80 | 0 | 7.0 | 12.2 | 0.01 | 0.12 | 0.05 | 85 | 1000.5 |
| 20260505181035 | 80 | 0 | 7.0 | 12.2 | 0.01 | 0.12 | 0.05 | 85 | 1000.6 |
| 20260505180935 | 80 | 0 | 7.8 | 12.2 | 0.01 | 0.12 | 0.05 | 85 | 1000.6 |
| 20260505180836 | 80 | 0 | 7.0 | 12.2 | 0.01 | 0.12 | 0.05 | 85 | 1000.6 |
| 20260505180735 | 80 | 0 | 5.2 | 11.3 | 0.01 | 0.12 | 0.05 | 85 | 1000.6 |
| 20260505180635 | 80 | 0 | 6.1 | 11.3 | 0.01 | 0.12 | 0.05 | 85 | 1000.5 |
| 20260505180536 | 80 | 0 | 6.1 | 11.3 | 0.01 | 0.12 | 0.05 | 85 | 1000.6 |
| 20260505180437 | 80 | 0 | 6.1 | 11.3 | 0.01 | 0.12 | 0.05 | 85 | 1000.6 |
| 20260505180336 | 80 | 0 | 6.1 | 10.4 | 0.01 | 0.12 | 0.05 | 85 | 1000.5 |
| 20260505180233 | 80 | 0 | 6.1 | 10.4 | 0.01 | 0.12 | 0.05 | 85 | 1000.6 |
| 20260505180136 | 80 | 0 | 6.1 | 13.0 | 0.01 | 0.12 | 0.05 | 85 | 1000.6 |
| 20260505180036 | 80 | 0 | 6.1 | 13.0 | 0.01 | 0.12 | 0.05 | 85 | 1000.6 |
| 20260505175935 | 80 | 0 | 6.1 | 13.0 | 0.01 | 0.12 | 0.05 | 85 | 1000.6 |
| 20260505175835 | 80 | 0 | 6.1 | 13.0 | 0.01 | 0.12 | 0.05 | 85 | 1000.7 |
| 20260505175736 | 80 | 0 | 7.0 | 13.0 | 0.01 | 0.12 | 0.05 | 85 | 1000.7 |
| 20260505175635 | 80 | 0 | 7.0 | 13.0 | 0.01 | 0.12 | 0.05 | 85 | 1000.7 |
| 20260505175534 | 80 | 0 | 6.1 | 13.0 | 0.01 | 0.12 | 0.05 | 86 | 1000.7 |
| 20260505175436 | 80 | 0 | 5.2 | 13.0 | 0.01 | 0.12 | 0.05 | 86 | 1000.7 |
| 20260505175334 | 80 | 0 | 6.1 | 13.0 | 0.01 | 0.12 | 0.05 | 85 | 1000.7 |
| 20260505175235 | 80 | 0 | 7.8 | 13.0 | 0.01 | 0.12 | 0.05 | 85 | 1000.7 |
| 20260505175134 | 80 | 0 | 8.7 | 12.2 | 0.01 | 0.12 | 0.05 | 85 | 1000.7 |
| 20260505175035 | 80 | 0 | 8.7 | 12.2 | 0.01 | 0.12 | 0.05 | 85 | 1000.7 |
| 20260505174934 | 80 | 0 | 7.8 | 12.2 | 0.01 | 0.12 | 0.05 | 86 | 1000.8 |
| 20260505174835 | 80 | 0 | 7.8 | 12.2 | 0.01 | 0.12 | 0.05 | 86 | 1000.7 |
| 20260505174735 | 80 | 0 | 6.1 | 12.2 | 0.01 | 0.12 | 0.05 | 86 | 1000.7 |
| 20260505174634 | 79 | 0 | 6.1 | 14.8 | 0.01 | 0.12 | 0.05 | 86 | 1000.7 |
| 20260505174534 | 79 | 0 | 7.0 | 14.8 | 0.01 | 0.12 | 0.05 | 87 | 1000.8 |
| 20260505174432 | 79 | 217 | 5.2 | 14.8 | 0.01 | 0.12 | 0.05 | 87 | 1000.7 |
| 20260505174330 | 79 | 193 | 5.2 | 14.8 | 0.00 | 0.11 | 0.04 | 87 | 1000.6 |
| 20260505174230 | 79 | 199 | 6.1 | 14.8 | 0.00 | 0.11 | 0.04 | 86 | 1000.7 |
| 20260505174127 | 79 | 192 | 7.0 | 14.8 | 0.00 | 0.11 | 0.04 | 86 | 1000.7 |
| 20260505174026 | 79 | 212 | 7.8 | 14.8 | 0.00 | 0.11 | 0.04 | 86 | 1000.8 |
| 20260505173925 | 79 | 199 | 7.0 | 14.8 | 0.00 | 0.11 | 0.04 | 86 | 1000.8 |
| 20260505173822 | 79 | 190 | 7.0 | 14.8 | 0.00 | 0.11 | 0.04 | 86 | 1000.8 |
| 20260505173720 | 79 | 204 | 6.1 | 14.8 | 0.00 | 0.11 | 0.04 | 86 | 1000.7 |
| 20260505173618 | 79 | 213 | 6.1 | 13.0 | 0.00 | 0.11 | 0.04 | 86 | 1000.7 |
| 20260505173517 | 79 | 212 | 7.8 | 13.0 | 0.00 | 0.11 | 0.04 | 86 | 1000.8 |
| 20260505173416 | 79 | 189 | 7.8 | 13.0 | 0.00 | 0.11 | 0.04 | 86 | 1000.8 |
| 20260505173314 | 79 | 179 | 7.0 | 13.0 | 0.00 | 0.11 | 0.04 | 86 | 1000.8 |
| 20260505173213 | 79 | 197 | 7.8 | 13.0 | 0.00 | 0.11 | 0.04 | 86 | 1000.8 |
| 20260505173111 | 79 | 188 | 9.6 | 13.0 | 0.00 | 0.11 | 0.04 | 86 | 1000.8 |
| 20260505173010 | 80 | 0 | 7.8 | 13.0 | 0.00 | 0.11 | 0.04 | 86 | 1000.8 |
| 20260505172908 | 80 | 0 | 5.2 | 9.6 | 0.00 | 0.11 | 0.04 | 86 | 1000.8 |
| 20260505172807 | 80 | 0 | 4.3 | 10.4 | 0.00 | 0.11 | 0.04 | 86 | 1000.8 |
| 20260505172704 | 79 | 0 | 4.3 | 10.4 | 0.00 | 0.11 | 0.04 | 87 | 1000.8 |
| 20260505172603 | 79 | 0 | 5.2 | 10.4 | 0.00 | 0.11 | 0.04 | 87 | 1000.8 |
| 20260505172504 | 79 | 0 | 4.3 | 10.4 | 0.00 | 0.11 | 0.04 | 87 | 1000.8 |
| 20260505172402 | 79 | 0 | 4.3 | 10.4 | 0.00 | 0.11 | 0.04 | 87 | 1000.8 |
| 20260505172301 | 79 | 0 | 3.5 | 10.4 | 0.00 | 0.11 | 0.04 | 87 | 1000.8 |
| 20260505172203 | 79 | 0 | 4.3 | 10.4 | 0.00 | 0.11 | 0.04 | 87 | 1000.9 |
| 20260505172102 | 79 | 0 | 6.1 | 10.4 | 0.00 | 0.11 | 0.04 | 87 | 1000.8 |
| 20260505172004 | 79 | 0 | 5.2 | 10.4 | 0.00 | 0.11 | 0.04 | 87 | 1001.0 |
| 20260505171904 | 79 | 0 | 4.3 | 9.6 | 0.00 | 0.11 | 0.04 | 87 | 1000.9 |
| 20260505171802 | 79 | 0 | 5.2 | 9.6 | 0.00 | 0.11 | 0.04 | 88 | 1000.9 |
| 20260505171702 | 79 | 0 | 5.2 | 9.6 | 0.00 | 0.11 | 0.04 | 88 | 1000.8 |
| 20260505171603 | 78 | 206 | 5.2 | 9.6 | 0.00 | 0.11 | 0.04 | 88 | 1000.9 |
| 20260505171504 | 78 | 185 | 5.2 | 7.8 | 0.00 | 0.11 | 0.04 | 88 | 1000.9 |
| 20260505171402 | 78 | 0 | 3.5 | 7.8 | 0.00 | 0.11 | 0.04 | 88 | 1001.0 |
| 20260505171302 | 78 | 217 | 3.5 | 10.4 | 0.00 | 0.11 | 0.04 | 88 | 1000.9 |
| 20260505171203 | 78 | 224 | 4.3 | 10.4 | 0.00 | 0.12 | 0.04 | 88 | 1001.0 |
| 20260505171103 | 78 | 199 | 5.2 | 11.3 | 0.00 | 0.12 | 0.04 | 88 | 1001.0 |
| 20260505170950 | 78 | 245 | 5.2 | 11.3 | 0.00 | 0.12 | 0.04 | 88 | 1001.0 |
| 20260505170848 | 78 | 214 | 5.2 | 11.3 | 0.00 | 0.12 | 0.04 | 88 | 1001.0 |
| 20260505170747 | 78 | 193 | 5.2 | 11.3 | 0.00 | 0.12 | 0.04 | 88 | 1001.0 |
| 20260505170646 | 78 | 183 | 4.3 | 11.3 | 0.00 | 0.12 | 0.04 | 88 | 1001.1 |
| 20260505170544 | 78 | 214 | 4.3 | 11.3 | 0.00 | 0.12 | 0.04 | 88 | 1001.0 |
| 20260505170439 | 78 | 213 | 5.2 | 11.3 | 0.00 | 0.12 | 0.04 | 88 | 1001.1 |
| 20260505170337 | 78 | 224 | 5.2 | 11.3 | 0.00 | 0.12 | 0.04 | 88 | 1001.1 |
| 20260505170236 | 78 | 196 | 5.2 | 11.3 | 0.00 | 0.12 | 0.04 | 88 | 1001.1 |
| 20260505170134 | 78 | 203 | 5.2 | 10.4 | 0.00 | 0.12 | 0.04 | 88 | 1001.1 |
| 20260505170035 | 78 | 203 | 6.1 | 10.4 | 0.00 | 0.12 | 0.04 | 88 | 1001.1 |
| 20260505165933 | 78 | 202 | 6.1 | 9.6 | 0.00 | 0.12 | 0.04 | 88 | 1001.1 |
| 20260505165833 | 78 | 220 | 5.2 | 9.6 | 0.00 | 0.12 | 0.04 | 88 | 1001.0 |
| 20260505165733 | 78 | 196 | 3.5 | 8.7 | 0.00 | 0.12 | 0.04 | 88 | 1001.0 |
| 20260505165633 | 78 | 193 | 3.5 | 8.7 | 0.00 | 0.12 | 0.04 | 88 | 1001.1 |
| 20260505165534 | 78 | 199 | 4.3 | 8.7 | 0.00 | 0.12 | 0.04 | 88 | 1001.0 |
| 20260505165434 | 78 | 192 | 5.2 | 8.7 | 0.00 | 0.12 | 0.04 | 88 | 1001.0 |
| 20260505165333 | 78 | 203 | 4.3 | 8.7 | 0.00 | 0.12 | 0.04 | 88 | 1001.0 |
| 20260505165234 | 78 | 178 | 4.3 | 8.7 | 0.00 | 0.12 | 0.04 | 88 | 1000.9 |
| 20260505165133 | 78 | 196 | 5.2 | 8.7 | 0.00 | 0.12 | 0.04 | 88 | 1000.9 |
| 20260505165033 | 78 | 182 | 6.1 | 8.7 | 0.00 | 0.12 | 0.04 | 88 | 1001.0 |
| 20260505164933 | 78 | 0 | 5.2 | 9.6 | 0.00 | 0.12 | 0.04 | 88 | 1000.9 |
| 20260505164834 | 78 | 185 | 5.2 | 9.6 | 0.00 | 0.12 | 0.04 | 88 | 1001.0 |
| 20260505164733 | 78 | 221 | 5.2 | 9.6 | 0.00 | 0.12 | 0.04 | 88 | 1000.9 |
| 20260505164633 | 78 | 188 | 5.2 | 9.6 | 0.00 | 0.12 | 0.04 | 88 | 1001.0 |
| 20260505164534 | 78 | 197 | 5.2 | 9.6 | 0.00 | 0.12 | 0.04 | 88 | 1001.0 |
| 20260505164433 | 78 | 193 | 4.3 | 9.6 | 0.00 | 0.12 | 0.04 | 88 | 1001.0 |
| 20260505164334 | 78 | 0 | 3.5 | 9.6 | 0.00 | 0.12 | 0.04 | 88 | 1001.0 |
| 20260505164233 | 78 | 0 | 4.3 | 9.6 | 0.00 | 0.12 | 0.04 | 88 | 1001.1 |
| 20260505164133 | 78 | 0 | 5.2 | 9.6 | 0.00 | 0.12 | 0.04 | 88 | 1001.0 |
| 20260505164033 | 78 | 0 | 5.2 | 9.6 | 0.00 | 0.12 | 0.04 | 88 | 1001.0 |
| 20260505163932 | 78 | 0 | 6.1 | 11.3 | 0.00 | 0.12 | 0.04 | 88 | 1001.0 |
| 20260505163834 | 78 | 0 | 5.2 | 11.3 | 0.00 | 0.12 | 0.04 | 89 | 1001.0 |
| 20260505163732 | 78 | 0 | 5.2 | 11.3 | 0.00 | 0.12 | 0.04 | 89 | 1001.1 |
| 20260505163633 | 78 | 0 | 5.2 | 11.3 | 0.00 | 0.12 | 0.04 | 89 | 1001.0 |
| 20260505163532 | 78 | 0 | 4.3 | 11.3 | 0.00 | 0.12 | 0.04 | 89 | 1001.0 |
| 20260505163435 | 78 | 0 | 5.2 | 11.3 | 0.00 | 0.12 | 0.04 | 89 | 1001.1 |
| 20260505163333 | 78 | 0 | 6.1 | 11.3 | 0.00 | 0.12 | 0.04 | 89 | 1000.9 |
| 20260505163232 | 78 | 0 | 5.2 | 11.3 | 0.00 | 0.12 | 0.04 | 89 | 1001.0 |
| 20260505163133 | 78 | 0 | 6.1 | 11.3 | 0.00 | 0.12 | 0.04 | 89 | 1000.9 |
| 20260505163032 | 78 | 0 | 6.1 | 11.3 | 0.00 | 0.12 | 0.04 | 89 | 1001.0 |
| 20260505162933 | 78 | 0 | 6.1 | 10.4 | 0.00 | 0.12 | 0.04 | 89 | 1001.1 |
| 20260505162832 | 78 | 0 | 6.1 | 10.4 | 0.00 | 0.12 | 0.04 | 89 | 1001.0 |
| 20260505162733 | 78 | 0 | 5.2 | 10.4 | 0.00 | 0.12 | 0.04 | 89 | 1001.0 |
| 20260505162632 | 78 | 0 | 4.3 | 10.4 | 0.00 | 0.12 | 0.04 | 89 | 1001.0 |
| 20260505162532 | 78 | 0 | 5.2 | 10.4 | 0.00 | 0.12 | 0.04 | 89 | 1000.9 |
| 20260505162433 | 78 | 0 | 6.1 | 10.4 | 0.00 | 0.12 | 0.04 | 89 | 1001.0 |
| 20260505162332 | 78 | 0 | 6.1 | 10.4 | 0.00 | 0.12 | 0.04 | 89 | 1001.0 |
| 20260505162233 | 78 | 0 | 6.1 | 10.4 | 0.00 | 0.12 | 0.04 | 90 | 1001.0 |
| 20260505162132 | 78 | 0 | 6.1 | 10.4 | 0.00 | 0.12 | 0.04 | 90 | 1001.1 |
| 20260505162033 | 77 | 206 | 6.1 | 12.2 | 0.00 | 0.12 | 0.04 | 90 | 1001.0 |
| 20260505161932 | 77 | 230 | 5.2 | 12.2 | 0.00 | 0.12 | 0.04 | 90 | 1001.0 |
| 20260505161830 | 77 | 0 | 4.3 | 12.2 | 0.00 | 0.12 | 0.04 | 90 | 1001.0 |
| 20260505161731 | 77 | 0 | 4.3 | 12.2 | 0.00 | 0.12 | 0.04 | 90 | 1000.9 |
| 20260505161633 | 77 | 0 | 4.3 | 12.2 | 0.00 | 0.12 | 0.04 | 90 | 1001.0 |
| 20260505161531 | 77 | 0 | 3.5 | 12.2 | 0.00 | 0.12 | 0.04 | 90 | 1001.0 |
| 20260505161430 | 77 | 219 | 4.3 | 12.2 | 0.00 | 0.12 | 0.04 | 90 | 1000.9 |
| 20260505161330 | 77 | 206 | 5.2 | 12.2 | 0.00 | 0.12 | 0.04 | 90 | 1000.9 |
| 20260505161229 | 77 | 206 | 5.2 | 12.2 | 0.00 | 0.12 | 0.04 | 90 | 1000.9 |